[{"header": {"parameterCategory": 1, "parameterNumber": 2, "dx": 0.06612293990616946, "dy": 0.0552356325346848, "nx": 98, "ny": 59, "la1": 35.046912555036876, "la2": 31.78801023549047, "lo1": -121.43107172385933, "lo2": -114.95102361305473, "refTime": "2026041309"}, "data": [12.07, 12.52, 12.52, 12.52, 12.52, 12.96, 12.96, 12.96, 12.96, 12.96, 13.41, 13.41, 13.86, 13.86, 13.86, 13.86, 13.86, 13.86, 13.86, 13.86, 13.86, 13.86, 13.86, 13.41, 13.41, 12.96, 12.07, 11.62, 10.73, 10.28, 10.28, 10.28, 10.28, 10.73, 11.18, 11.62, 11.62, 11.62, 11.62, 12.07, 12.07, 12.52, 13.41, 13.86, 14.3, 13.86, 12.52, 11.62, 11.18, 11.18, 11.62, 12.07, 12.52, 12.96, 13.41, 13.86, 14.3, 14.3, 14.3, 14.3, 13.86, 14.3, 14.3, 14.3, 14.75, 15.2, 15.2, 15.2, 15.2, 14.75, 13.86, 12.96, 12.52, 12.52, 12.52, 12.52, 12.52, 12.96, 12.96, 12.96, 12.96, 12.96, 12.96, 12.96, 13.41, 13.41, 13.86, 14.3, 14.3, 14.3, 13.86, 12.96, 12.52, 12.52, 12.96, 12.96, 12.52, 12.07, 12.52, 12.52, 12.52, 12.52, 12.52, 12.96, 12.96, 12.96, 12.96, 13.41, 13.41, 13.41, 13.41, 13.86, 13.86, 13.86, 14.3, 14.3, 14.3, 14.3, 14.3, 13.86, 13.86, 13.86, 13.41, 12.96, 12.52, 11.62, 10.73, 10.28, 10.28, 10.28, 10.73, 11.18, 11.18, 11.62, 12.07, 12.52, 12.52, 12.52, 12.52, 12.96, 13.41, 13.86, 13.41, 12.52, 11.62, 11.62, 11.62, 12.07, 12.52, 12.52, 12.52, 12.96, 13.41, 13.86, 13.86, 13.86, 13.86, 13.86, 13.86, 13.86, 13.86, 14.3, 14.75, 15.2, 15.2, 15.65, 15.65, 15.2, 14.3, 13.41, 12.96, 12.96, 12.96, 12.96, 12.96, 12.96, 12.96, 12.96, 12.96, 12.96, 12.96, 12.96, 13.41, 13.41, 13.86, 14.3, 14.3, 14.3, 13.86, 12.96, 12.52, 12.52, 12.96, 12.96, 12.52, 12.07, 12.52, 12.52, 12.52, 12.52, 12.96, 12.96, 12.96, 12.96, 13.41, 13.41, 13.41, 13.41, 13.41, 13.86, 13.86, 13.86, 14.3, 14.3, 14.3, 14.3, 14.3, 14.3, 13.86, 13.86, 13.41, 13.41, 12.52, 11.62, 11.18, 10.73, 10.28, 10.73, 10.73, 11.18, 11.62, 12.07, 12.52, 12.96, 12.96, 12.96, 12.96, 13.41, 13.41, 13.41, 12.52, 12.52, 12.07, 12.52, 12.52, 12.52, 12.52, 12.52, 12.52, 12.96, 12.96, 13.41, 13.86, 13.86, 13.86, 13.41, 13.41, 13.41, 13.41, 13.86, 14.3, 14.75, 15.2, 15.65, 15.65, 15.65, 14.75, 14.3, 13.41, 12.96, 13.41, 13.41, 13.86, 13.41, 13.41, 13.41, 13.41, 13.41, 13.41, 13.41, 12.96, 13.41, 13.86, 14.3, 14.3, 13.86, 12.96, 12.07, 12.07, 12.52, 12.96, 13.41, 12.96, 11.62, 12.52, 12.52, 12.52, 12.96, 12.96, 12.96, 12.96, 13.41, 13.41, 13.41, 13.41, 13.86, 13.86, 13.86, 13.86, 13.86, 13.86, 14.3, 14.3, 14.3, 14.3, 14.3, 14.3, 13.86, 13.41, 12.96, 12.52, 12.07, 11.62, 11.18, 10.73, 10.73, 11.18, 11.18, 12.07, 12.96, 12.96, 13.41, 13.41, 13.41, 12.96, 12.96, 12.96, 12.96, 12.96, 12.96, 12.96, 12.96, 12.96, 12.96, 12.96, 12.96, 12.96, 12.96, 12.96, 13.41, 13.41, 13.41, 13.41, 12.96, 12.96, 12.96, 13.41, 13.86, 14.3, 14.75, 15.2, 15.65, 15.65, 15.65, 15.65, 14.75, 13.86, 13.41, 13.41, 13.86, 14.3, 14.3, 13.41, 13.41, 13.41, 13.41, 13.41, 13.41, 12.96, 13.41, 13.86, 14.3, 14.3, 13.41, 12.52, 12.07, 12.52, 12.96, 13.41, 13.41, 12.52, 11.62, 12.96, 12.96, 12.96, 12.96, 12.96, 12.96, 12.96, 13.41, 13.41, 13.41, 13.86, 13.86, 13.86, 13.86, 13.86, 13.86, 13.86, 14.3, 14.3, 14.3, 14.3, 14.3, 14.3, 14.3, 13.86, 13.41, 12.96, 12.52, 12.07, 11.62, 11.62, 11.62, 12.07, 11.62, 12.07, 13.41, 13.41, 13.41, 13.41, 12.96, 12.52, 12.96, 12.96, 13.41, 13.41, 13.86, 13.41, 13.41, 13.41, 13.41, 13.41, 12.96, 12.96, 12.96, 13.41, 13.41, 13.41, 13.41, 13.41, 12.96, 12.52, 12.96, 13.41, 13.86, 14.3, 14.75, 15.2, 15.65, 15.65, 16.09, 16.09, 15.2, 14.3, 13.41, 13.41, 13.86, 14.3, 14.75, 14.3, 13.41, 13.41, 13.41, 13.41, 13.41, 12.96, 13.41, 13.86, 14.3, 13.86, 12.96, 12.96, 12.96, 12.96, 12.96, 12.96, 12.96, 12.52, 11.62, 12.96, 12.96, 12.96, 12.96, 12.96, 13.41, 13.41, 13.41, 13.41, 13.86, 13.86, 13.86, 13.86, 13.86, 13.86, 13.86, 13.86, 14.3, 14.3, 14.75, 14.75, 14.3, 14.3, 14.3, 13.86, 13.86, 13.41, 12.52, 12.07, 11.62, 12.07, 12.52, 12.52, 12.96, 12.96, 13.86, 13.41, 12.96, 12.96, 12.96, 12.52, 12.96, 13.41, 13.86, 13.86, 13.86, 13.86, 13.86, 13.86, 13.86, 13.41, 13.41, 13.41, 13.41, 13.41, 13.41, 13.41, 13.41, 13.41, 12.96, 12.52, 12.96, 13.41, 14.3, 14.75, 14.75, 15.2, 15.2, 15.65, 16.09, 16.09, 15.65, 14.75, 13.86, 13.41, 13.41, 13.86, 14.3, 14.75, 14.3, 13.86, 13.86, 13.41, 13.41, 13.41, 13.41, 13.86, 13.86, 13.41, 13.41, 13.41, 13.41, 12.96, 12.96, 12.96, 12.96, 12.52, 11.62, 12.96, 12.96, 12.96, 13.41, 13.41, 13.41, 13.41, 13.41, 13.86, 13.86, 13.86, 13.86, 13.86, 13.86, 14.3, 14.3, 14.3, 14.3, 14.3, 14.3, 14.75, 14.75, 14.75, 14.3, 13.86, 14.3, 13.41, 12.52, 12.07, 11.62, 12.07, 12.52, 12.96, 12.96, 13.41, 13.41, 12.96, 12.52, 12.07, 12.96, 12.96, 13.41, 13.86, 14.3, 14.3, 14.75, 14.3, 14.3, 14.3, 14.3, 13.86, 13.86, 13.86, 13.86, 13.86, 13.86, 13.86, 13.86, 13.41, 12.96, 12.96, 13.41, 13.86, 14.3, 14.75, 15.2, 14.75, 14.75, 15.2, 15.65, 16.09, 16.09, 15.65, 14.3, 12.52, 12.07, 12.96, 13.86, 14.3, 14.3, 14.3, 13.86, 13.41, 12.96, 13.41, 13.41, 13.41, 13.86, 13.41, 13.41, 13.41, 13.41, 13.41, 12.96, 12.96, 12.96, 12.07, 11.62, 12.96, 12.96, 13.41, 13.41, 13.41, 13.41, 13.86, 13.86, 13.86, 13.86, 13.86, 14.3, 14.3, 13.86, 14.3, 14.3, 14.3, 14.3, 14.3, 14.3, 14.3, 14.3, 14.75, 14.75, 14.3, 13.86, 13.41, 12.96, 12.52, 12.07, 12.52, 12.96, 12.52, 12.96, 12.96, 12.96, 12.52, 11.62, 11.18, 12.52, 13.41, 14.3, 14.3, 14.3, 14.75, 14.75, 14.75, 14.75, 14.3, 14.3, 14.3, 14.3, 14.3, 14.3, 14.3, 14.3, 13.86, 13.86, 13.86, 13.41, 13.41, 13.86, 13.86, 14.75, 15.2, 15.2, 15.2, 14.75, 15.2, 15.65, 16.09, 16.09, 16.09, 15.2, 13.41, 12.52, 12.52, 12.96, 13.41, 13.86, 13.41, 13.41, 12.96, 12.96, 12.96, 13.41, 13.41, 13.41, 13.41, 13.41, 13.41, 13.41, 13.41, 13.41, 12.96, 12.52, 12.07, 11.62, 13.41, 13.41, 13.41, 13.41, 13.86, 13.86, 13.86, 13.86, 13.86, 13.86, 14.3, 14.3, 14.3, 13.86, 14.3, 14.3, 14.3, 14.3, 14.3, 14.3, 14.3, 14.3, 14.3, 14.75, 14.3, 13.86, 13.86, 13.86, 12.96, 12.96, 12.96, 12.96, 12.07, 12.07, 12.07, 12.52, 12.52, 12.07, 11.18, 12.52, 13.86, 14.3, 14.75, 14.75, 15.2, 15.2, 14.75, 14.3, 14.3, 14.75, 14.75, 14.75, 14.75, 14.75, 14.3, 14.3, 14.3, 13.86, 13.86, 13.86, 13.86, 13.86, 14.3, 14.75, 15.2, 15.65, 15.65, 15.2, 15.2, 15.65, 16.09, 16.54, 16.54, 15.65, 14.3, 13.41, 13.41, 13.41, 13.41, 13.41, 12.96, 12.96, 12.52, 12.52, 12.52, 12.96, 13.41, 13.41, 13.41, 13.41, 12.96, 12.96, 12.96, 12.52, 12.52, 12.07, 11.62, 11.18, 13.41, 13.41, 13.41, 13.41, 13.86, 13.86, 13.86, 13.86, 14.3, 14.3, 14.3, 14.3, 14.3, 14.3, 14.3, 14.3, 14.3, 14.3, 14.75, 14.75, 14.75, 14.3, 14.3, 14.75, 14.3, 13.86, 13.86, 14.3, 13.41, 12.96, 12.52, 12.52, 12.07, 12.52, 12.96, 12.52, 12.52, 12.96, 12.07, 12.96, 14.3, 13.86, 14.3, 14.75, 14.3, 14.75, 15.2, 14.75, 14.3, 14.3, 14.3, 14.3, 14.3, 14.3, 14.3, 14.3, 14.3, 14.3, 13.86, 13.86, 13.86, 14.3, 14.3, 14.75, 15.65, 16.09, 16.09, 15.65, 15.65, 15.65, 16.54, 16.99, 16.54, 15.65, 14.75, 14.3, 14.3, 13.86, 13.86, 13.86, 13.41, 13.41, 12.52, 12.07, 12.52, 12.96, 12.96, 12.96, 12.96, 12.96, 12.52, 12.52, 12.96, 12.52, 11.62, 11.62, 11.62, 11.18, 13.41, 13.41, 13.41, 13.86, 13.86, 13.86, 13.86, 14.3, 14.3, 14.3, 14.3, 14.3, 14.3, 14.3, 14.3, 14.3, 14.75, 14.75, 14.75, 14.75, 14.75, 14.3, 14.3, 14.75, 14.75, 14.3, 14.3, 14.3, 13.86, 12.96, 12.52, 12.52, 12.96, 13.41, 13.86, 12.96, 12.52, 12.96, 12.52, 12.96, 14.3, 13.86, 13.86, 14.3, 14.3, 14.75, 14.75, 15.2, 15.2, 14.75, 14.3, 14.3, 13.86, 13.86, 14.3, 14.3, 14.75, 14.75, 14.3, 14.3, 14.3, 14.75, 14.75, 15.2, 16.09, 16.09, 16.54, 16.09, 16.09, 16.09, 16.54, 16.99, 16.99, 16.09, 15.2, 14.75, 14.3, 14.3, 14.3, 14.3, 14.3, 14.3, 13.86, 12.96, 12.52, 12.96, 12.96, 12.96, 12.96, 12.52, 12.52, 12.07, 12.52, 12.07, 11.18, 11.62, 11.62, 10.73, 13.41, 13.41, 13.41, 13.86, 13.86, 13.86, 14.3, 14.3, 14.3, 14.3, 14.3, 14.3, 14.3, 14.3, 14.3, 14.3, 14.3, 14.3, 14.3, 14.3, 14.3, 14.75, 14.75, 14.75, 14.75, 14.3, 14.3, 14.3, 13.86, 13.41, 12.52, 12.96, 13.41, 13.41, 13.41, 13.41, 12.96, 13.41, 13.41, 13.41, 13.86, 13.86, 13.86, 14.3, 14.3, 14.75, 14.75, 15.2, 15.2, 14.75, 14.75, 14.75, 14.75, 14.3, 14.3, 14.3, 14.75, 14.75, 14.3, 14.3, 14.3, 14.3, 14.75, 15.2, 15.65, 16.54, 16.99, 16.99, 16.54, 16.54, 16.99, 17.43, 16.99, 16.54, 15.65, 15.2, 14.75, 14.3, 14.3, 14.75, 14.75, 14.75, 14.3, 13.41, 12.96, 12.96, 12.52, 12.52, 12.52, 12.52, 12.52, 12.52, 12.52, 11.62, 11.62, 11.62, 11.18, 10.73, 13.41, 13.41, 13.41, 13.86, 13.86, 13.86, 14.3, 14.3, 14.3, 14.3, 14.3, 14.3, 14.3, 14.3, 14.3, 14.3, 14.3, 14.3, 14.3, 14.3, 14.3, 14.75, 14.75, 14.75, 14.3, 13.86, 13.86, 13.86, 13.41, 13.41, 12.96, 12.96, 13.41, 12.96, 13.41, 13.41, 13.41, 13.41, 13.41, 13.41, 13.86, 13.86, 13.41, 13.86, 14.3, 14.3, 14.75, 14.75, 14.75, 15.2, 15.2, 14.75, 14.3, 14.3, 13.86, 14.3, 15.2, 14.75, 13.41, 12.52, 12.52, 13.41, 14.3, 14.75, 14.75, 15.65, 16.99, 17.88, 17.88, 17.88, 17.43, 17.43, 17.43, 16.54, 15.65, 15.2, 15.2, 15.2, 15.2, 15.2, 15.2, 14.75, 14.3, 14.3, 13.41, 12.96, 12.96, 12.52, 12.52, 12.52, 12.52, 12.52, 12.52, 11.62, 11.62, 11.62, 11.18, 11.18, 13.41, 13.41, 13.41, 13.86, 13.86, 13.86, 14.3, 14.3, 14.3, 14.3, 14.3, 14.3, 14.3, 14.3, 14.3, 14.3, 14.75, 14.75, 14.3, 14.3, 14.3, 14.75, 14.75, 14.75, 14.3, 13.86, 13.86, 13.86, 13.41, 13.41, 12.96, 12.96, 12.96, 12.96, 13.41, 13.86, 13.41, 13.86, 13.86, 13.86, 13.86, 13.41, 12.96, 13.41, 14.3, 14.75, 14.75, 15.2, 14.75, 15.2, 15.2, 14.75, 14.3, 14.75, 14.75, 15.2, 15.2, 14.75, 13.41, 12.07, 11.62, 12.52, 13.41, 13.86, 14.3, 14.75, 15.65, 16.54, 17.88, 18.78, 18.78, 17.88, 16.99, 15.65, 14.75, 14.75, 15.2, 15.65, 16.09, 15.65, 15.2, 14.3, 14.3, 14.3, 13.86, 13.41, 12.96, 12.52, 12.07, 12.07, 12.52, 12.52, 12.07, 11.62, 11.62, 11.62, 11.18, 11.18, 13.41, 13.41, 13.86, 13.86, 13.86, 13.86, 14.3, 14.3, 14.3, 14.3, 14.3, 14.3, 14.3, 14.3, 14.3, 14.3, 14.3, 14.75, 14.75, 14.3, 14.3, 14.75, 14.3, 14.3, 14.3, 13.86, 13.86, 13.86, 13.41, 13.41, 12.96, 12.96, 12.96, 13.41, 13.86, 13.86, 13.86, 13.86, 13.86, 13.86, 13.41, 12.96, 12.96, 13.41, 14.3, 14.75, 15.2, 14.75, 15.2, 15.2, 14.3, 14.3, 14.3, 14.75, 14.75, 14.75, 14.75, 14.75, 14.3, 13.41, 12.96, 12.52, 13.41, 14.3, 14.3, 14.3, 14.75, 16.09, 17.43, 18.78, 19.67, 20.12, 17.88, 14.3, 12.07, 12.96, 14.3, 15.2, 15.65, 15.2, 14.3, 14.3, 14.3, 14.3, 14.3, 13.86, 13.41, 12.96, 12.52, 12.07, 12.07, 12.07, 12.07, 11.62, 11.18, 11.18, 11.18, 11.18, 13.86, 13.86, 13.86, 13.86, 13.86, 13.86, 14.3, 14.3, 14.3, 14.3, 14.3, 14.3, 14.3, 14.3, 14.3, 14.3, 14.3, 14.3, 14.3, 14.3, 14.3, 14.3, 14.3, 14.3, 14.3, 13.86, 13.86, 13.86, 13.41, 13.41, 13.41, 12.96, 13.41, 13.41, 13.86, 13.86, 13.86, 13.86, 13.86, 13.41, 12.96, 12.96, 12.96, 13.41, 13.86, 14.75, 14.75, 14.75, 15.2, 15.2, 14.75, 14.3, 14.75, 14.75, 14.75, 14.3, 14.3, 14.3, 14.75, 14.3, 13.86, 13.41, 13.86, 14.3, 14.75, 14.3, 14.75, 15.65, 16.99, 18.33, 19.67, 21.46, 19.22, 14.3, 11.18, 11.18, 12.52, 13.86, 13.86, 13.86, 13.86, 14.3, 14.3, 14.3, 13.86, 13.41, 13.41, 12.96, 12.52, 12.07, 12.07, 12.07, 11.18, 11.18, 11.18, 11.62, 11.18, 11.18, 13.86, 13.86, 13.86, 13.86, 13.86, 13.86, 14.3, 14.3, 14.3, 14.3, 14.3, 14.3, 14.3, 14.3, 14.3, 14.3, 14.3, 14.3, 14.3, 14.3, 14.3, 14.3, 14.3, 14.3, 14.3, 13.86, 13.86, 13.41, 13.41, 13.41, 13.41, 13.41, 13.41, 13.41, 13.86, 14.3, 13.86, 13.86, 13.86, 13.41, 12.96, 12.96, 12.96, 13.41, 13.86, 14.75, 14.75, 14.75, 14.75, 14.3, 14.3, 14.3, 14.3, 14.3, 14.3, 13.86, 13.86, 14.3, 14.3, 14.3, 13.86, 13.41, 13.41, 13.86, 14.3, 14.3, 14.3, 15.2, 15.2, 17.43, 21.46, 22.35, 19.67, 14.75, 12.52, 12.07, 12.52, 12.96, 12.96, 13.41, 13.41, 13.86, 13.86, 13.86, 12.96, 12.52, 12.52, 12.07, 12.07, 11.62, 11.62, 11.62, 11.62, 11.18, 11.62, 11.62, 11.62, 11.62, 13.86, 13.86, 13.86, 13.86, 13.86, 13.86, 14.3, 14.3, 14.3, 14.3, 14.3, 14.3, 14.3, 14.3, 14.3, 14.3, 14.3, 14.3, 14.3, 14.3, 14.3, 14.3, 14.3, 14.3, 14.3, 13.86, 13.86, 13.41, 13.41, 13.41, 13.41, 13.41, 13.41, 13.41, 13.86, 14.3, 13.86, 13.86, 13.41, 13.41, 12.96, 13.41, 13.41, 13.41, 14.3, 14.75, 15.2, 15.2, 14.75, 14.3, 14.3, 14.3, 14.3, 14.3, 13.86, 13.86, 13.86, 13.86, 13.86, 13.86, 13.41, 12.96, 12.96, 13.41, 13.86, 14.3, 14.75, 14.75, 15.65, 18.33, 22.8, 22.8, 19.22, 15.65, 14.75, 14.3, 14.3, 13.86, 12.96, 12.52, 12.07, 12.07, 12.52, 12.07, 11.62, 11.62, 11.62, 11.62, 11.62, 11.62, 11.18, 11.18, 11.18, 11.18, 11.62, 11.62, 11.62, 11.62, 13.86, 13.86, 13.86, 13.86, 13.86, 14.3, 14.3, 14.3, 14.3, 14.3, 14.3, 14.3, 14.3, 14.3, 14.3, 14.3, 14.3, 14.3, 14.3, 14.3, 14.3, 14.3, 14.3, 14.3, 13.86, 13.86, 13.86, 13.41, 13.41, 13.41, 13.41, 13.41, 13.41, 13.86, 13.86, 13.86, 13.86, 13.86, 13.41, 12.96, 13.41, 13.41, 13.41, 13.86, 14.3, 14.75, 14.75, 14.75, 14.75, 14.3, 14.3, 14.3, 14.3, 14.3, 13.86, 13.86, 13.86, 13.86, 13.86, 13.86, 13.86, 13.41, 13.41, 13.41, 13.86, 14.3, 14.75, 15.2, 16.54, 19.22, 21.9, 22.8, 20.12, 16.99, 15.2, 14.75, 15.2, 15.65, 15.65, 14.75, 12.96, 12.07, 11.18, 10.73, 10.73, 11.18, 11.62, 11.62, 11.62, 11.62, 11.18, 11.18, 11.18, 11.18, 11.62, 12.07, 11.62, 11.62, 13.86, 13.86, 13.86, 13.86, 13.86, 14.3, 14.3, 14.3, 14.3, 14.3, 14.3, 14.3, 14.3, 14.3, 14.3, 14.3, 14.3, 14.75, 14.3, 13.86, 13.86, 14.3, 14.3, 14.3, 13.86, 13.86, 13.86, 13.86, 13.86, 13.86, 13.86, 13.86, 13.86, 13.86, 13.86, 13.86, 13.86, 13.86, 13.41, 13.41, 13.41, 13.41, 13.86, 13.86, 14.3, 14.75, 14.75, 14.75, 14.3, 14.3, 14.3, 14.3, 14.3, 14.3, 13.86, 13.86, 13.86, 14.3, 13.86, 13.86, 13.86, 13.86, 13.41, 13.41, 13.86, 14.3, 15.2, 15.65, 16.99, 18.78, 21.01, 22.8, 21.46, 18.33, 15.2, 13.86, 14.75, 16.54, 17.43, 16.54, 14.75, 12.52, 11.18, 10.28, 10.28, 11.18, 11.62, 11.62, 11.62, 12.07, 11.62, 11.18, 11.18, 11.18, 11.62, 11.62, 11.18, 11.18, 13.86, 13.86, 13.86, 13.86, 14.3, 14.3, 14.3, 14.3, 14.3, 14.3, 14.3, 14.3, 14.75, 14.3, 14.3, 14.3, 14.3, 14.75, 14.3, 13.86, 14.3, 14.3, 14.3, 14.3, 13.86, 13.86, 13.86, 13.86, 13.86, 13.86, 13.86, 13.86, 13.86, 13.86, 13.86, 13.86, 13.86, 13.86, 13.86, 13.41, 13.41, 13.86, 13.86, 14.3, 14.3, 14.75, 14.75, 14.75, 14.3, 14.3, 14.3, 14.3, 14.3, 14.3, 13.86, 13.86, 13.86, 14.3, 14.3, 13.86, 13.86, 13.86, 13.41, 13.41, 13.86, 14.3, 15.2, 15.65, 16.99, 18.78, 21.01, 22.8, 21.9, 18.33, 14.75, 13.41, 16.54, 17.88, 18.33, 17.43, 16.09, 13.86, 12.07, 10.73, 10.73, 11.18, 11.18, 11.62, 11.18, 11.62, 11.62, 11.62, 11.62, 11.18, 11.18, 11.18, 10.73, 10.73, 13.86, 13.86, 13.86, 13.86, 14.3, 14.3, 14.3, 14.3, 14.3, 14.3, 14.3, 14.75, 14.75, 14.75, 14.3, 14.3, 14.75, 14.3, 14.3, 14.3, 14.3, 14.3, 14.3, 14.3, 13.86, 13.86, 13.86, 13.86, 13.86, 13.86, 13.86, 13.86, 13.86, 13.86, 13.86, 13.86, 13.86, 13.86, 13.86, 13.86, 13.86, 13.86, 13.86, 14.3, 14.3, 14.75, 14.75, 14.75, 14.75, 14.3, 14.3, 14.3, 14.3, 14.3, 14.3, 14.3, 13.86, 13.86, 14.3, 14.3, 13.86, 13.86, 13.86, 13.86, 13.86, 14.3, 15.2, 16.09, 16.99, 18.78, 21.01, 24.14, 23.69, 17.88, 13.41, 14.75, 16.54, 17.88, 17.88, 16.99, 16.09, 15.2, 13.41, 12.07, 11.18, 10.73, 11.18, 11.18, 10.73, 10.73, 11.18, 11.62, 11.62, 11.18, 10.73, 10.28, 9.83, 9.83, 13.86, 13.86, 13.86, 13.86, 14.3, 14.3, 14.3, 14.3, 14.3, 14.3, 14.3, 14.75, 14.75, 14.75, 14.75, 14.75, 14.75, 14.3, 14.3, 14.3, 14.3, 14.3, 14.3, 14.3, 14.3, 13.86, 13.86, 13.86, 13.86, 13.86, 13.86, 13.86, 13.86, 13.86, 13.86, 13.86, 13.86, 13.86, 13.86, 13.86, 13.86, 13.86, 13.86, 14.3, 14.75, 14.75, 14.75, 14.75, 14.75, 14.3, 14.3, 14.3, 14.3, 14.3, 14.3, 14.75, 14.3, 13.86, 13.86, 14.3, 14.3, 13.86, 13.86, 13.86, 14.3, 14.3, 14.75, 16.09, 16.99, 18.33, 19.67, 22.35, 17.88, 11.62, 11.62, 13.41, 15.65, 16.54, 16.54, 16.09, 15.65, 15.2, 14.3, 12.96, 11.62, 10.73, 10.73, 10.73, 10.28, 9.39, 10.28, 10.73, 10.73, 10.28, 9.83, 9.39, 8.94, 8.94, 13.86, 13.86, 13.86, 13.86, 13.86, 14.3, 14.3, 14.3, 14.3, 14.3, 14.3, 14.75, 14.75, 14.75, 14.75, 14.75, 14.75, 14.3, 14.3, 14.3, 14.3, 14.75, 14.75, 14.3, 14.3, 14.3, 14.3, 14.3, 14.3, 14.3, 13.86, 13.86, 13.86, 13.86, 13.86, 13.86, 13.86, 13.86, 13.86, 13.86, 13.86, 13.86, 14.3, 14.3, 14.75, 14.75, 14.75, 14.75, 14.75, 14.75, 14.3, 14.3, 14.3, 14.3, 14.75, 14.75, 14.75, 14.3, 13.86, 13.86, 14.3, 13.86, 13.86, 13.86, 14.3, 14.3, 15.2, 16.09, 16.99, 17.88, 18.78, 24.59, 21.46, 12.52, 10.28, 12.07, 14.3, 15.2, 14.75, 14.3, 14.3, 14.75, 14.75, 13.86, 12.52, 11.62, 10.73, 10.73, 10.28, 9.39, 8.94, 9.39, 9.83, 9.39, 8.94, 8.49, 8.05, 8.05, 13.86, 13.86, 13.86, 13.86, 13.86, 13.86, 14.3, 14.3, 14.3, 14.3, 14.3, 14.75, 14.75, 14.75, 14.75, 14.75, 14.75, 14.75, 14.3, 14.3, 14.3, 14.75, 14.75, 14.3, 14.3, 14.3, 14.3, 14.3, 14.3, 14.3, 14.3, 14.3, 13.86, 13.86, 13.86, 13.86, 13.86, 13.86, 13.86, 13.86, 13.86, 13.86, 14.3, 14.3, 14.75, 14.75, 14.75, 14.75, 14.75, 14.75, 14.75, 14.75, 14.75, 14.75, 14.75, 14.75, 14.75, 14.75, 14.3, 13.41, 13.86, 13.86, 13.86, 13.86, 14.3, 14.75, 15.2, 16.09, 16.54, 18.78, 21.01, 23.69, 23.69, 17.88, 12.52, 12.07, 14.3, 15.2, 14.3, 13.41, 13.41, 14.3, 14.75, 14.75, 13.86, 12.52, 11.62, 11.18, 10.73, 10.28, 8.94, 8.49, 8.49, 8.49, 8.05, 8.05, 7.6, 7.6, 13.41, 13.41, 13.41, 13.86, 13.86, 13.86, 13.86, 14.3, 14.3, 14.3, 14.3, 14.3, 14.75, 14.75, 14.75, 14.75, 14.75, 14.75, 14.75, 14.3, 14.3, 14.3, 14.3, 14.3, 14.3, 14.3, 14.3, 14.3, 14.3, 14.3, 14.3, 14.3, 14.3, 14.3, 14.3, 14.3, 14.3, 13.86, 13.86, 13.86, 13.86, 13.86, 14.3, 14.3, 14.75, 14.75, 14.75, 14.75, 14.75, 14.75, 14.75, 14.75, 14.75, 14.75, 14.75, 14.75, 14.75, 14.75, 14.75, 14.3, 13.86, 13.86, 13.86, 13.86, 13.86, 14.75, 15.65, 16.09, 17.88, 18.78, 20.56, 22.8, 23.69, 21.9, 16.54, 13.41, 13.86, 15.65, 15.65, 14.75, 14.3, 14.3, 14.75, 14.75, 14.3, 13.86, 12.96, 12.07, 11.62, 11.18, 10.73, 8.05, 8.05, 8.05, 8.05, 8.05, 8.05, 8.05, 13.41, 13.41, 13.41, 13.41, 13.86, 13.86, 13.86, 13.86, 14.3, 14.3, 14.3, 14.3, 14.3, 14.75, 14.75, 14.75, 14.75, 14.75, 14.3, 14.3, 14.3, 14.3, 14.3, 14.3, 14.3, 14.3, 14.3, 14.3, 14.3, 14.3, 14.3, 14.3, 14.3, 14.3, 14.3, 14.3, 14.3, 14.3, 14.3, 14.3, 14.3, 14.3, 14.3, 14.3, 14.75, 14.75, 14.75, 14.75, 14.75, 15.2, 15.2, 15.2, 15.2, 15.2, 14.75, 14.75, 15.2, 15.2, 15.2, 14.75, 14.3, 13.86, 13.86, 13.86, 14.3, 15.2, 15.65, 16.99, 17.88, 18.78, 20.56, 22.35, 23.25, 22.35, 20.12, 16.09, 12.96, 13.86, 16.09, 16.54, 15.65, 15.2, 14.75, 14.75, 14.75, 14.75, 14.3, 13.41, 12.96, 12.52, 12.52, 11.62, 8.05, 8.05, 8.94, 8.94, 8.94, 8.94, 13.41, 13.41, 13.41, 13.41, 13.41, 13.41, 13.86, 13.86, 13.86, 14.3, 14.3, 14.3, 14.3, 14.3, 14.3, 14.75, 14.75, 14.3, 14.3, 14.3, 14.3, 14.3, 14.3, 14.3, 14.3, 14.3, 14.3, 14.3, 14.3, 14.3, 14.3, 14.3, 14.3, 14.3, 14.3, 14.3, 14.3, 14.3, 14.3, 14.3, 14.3, 14.3, 14.75, 14.75, 14.75, 15.2, 15.2, 15.2, 15.2, 15.2, 15.2, 15.2, 15.2, 15.2, 15.2, 15.2, 15.2, 15.2, 15.2, 15.2, 14.75, 14.3, 13.86, 13.86, 14.75, 15.2, 16.54, 17.43, 18.33, 19.22, 20.56, 21.9, 22.35, 22.35, 21.46, 18.78, 13.41, 10.28, 13.41, 16.54, 16.99, 15.65, 14.75, 14.3, 14.75, 14.75, 14.75, 14.3, 13.86, 13.41, 13.41, 12.96, 9.39, 8.49, 8.94, 9.39, 9.83, 9.83, 12.96, 12.96, 12.96, 13.41, 13.41, 13.41, 13.41, 13.41, 13.86, 13.86, 13.86, 14.3, 14.3, 14.3, 14.3, 14.3, 14.3, 14.3, 14.3, 14.3, 14.3, 14.3, 14.3, 14.3, 14.3, 14.3, 14.3, 14.3, 14.3, 14.3, 14.3, 14.3, 14.3, 14.3, 14.3, 14.3, 14.3, 14.3, 14.3, 14.3, 14.3, 14.75, 14.75, 14.75, 14.75, 14.75, 15.2, 15.2, 15.2, 15.2, 15.2, 15.2, 15.2, 15.2, 15.65, 15.65, 15.65, 15.65, 15.65, 15.2, 14.75, 14.3, 14.3, 14.75, 15.2, 16.09, 16.54, 17.43, 18.33, 19.22, 20.56, 21.9, 22.35, 22.35, 21.9, 19.67, 16.09, 12.07, 11.62, 14.75, 17.43, 16.99, 15.2, 14.3, 14.75, 15.2, 14.75, 14.75, 14.3, 13.86, 13.86, 13.86, 13.41, 9.83, 8.94, 9.39, 9.83, 9.83, 12.96, 12.96, 12.96, 12.96, 12.96, 13.41, 13.41, 13.41, 13.41, 13.41, 13.86, 13.86, 13.86, 13.86, 14.3, 14.3, 14.3, 14.3, 14.3, 14.3, 14.3, 14.3, 14.3, 14.3, 14.3, 14.3, 14.3, 14.3, 14.3, 14.3, 14.3, 14.3, 14.3, 14.3, 14.3, 14.3, 14.3, 14.3, 14.3, 14.3, 14.3, 14.75, 14.75, 14.75, 15.2, 14.75, 14.75, 15.2, 15.2, 15.2, 15.65, 15.65, 15.65, 15.65, 15.65, 15.65, 15.65, 15.65, 15.65, 15.65, 15.2, 14.75, 14.75, 15.2, 16.09, 16.54, 16.99, 17.43, 18.33, 19.22, 20.12, 21.9, 22.8, 22.8, 21.9, 19.67, 16.99, 15.2, 14.3, 14.3, 16.09, 17.43, 16.54, 15.65, 15.2, 15.2, 15.2, 15.2, 14.75, 14.3, 14.3, 14.3, 13.86, 12.07, 10.73, 9.83, 10.28, 10.28, 12.52, 12.52, 12.52, 12.96, 12.96, 12.96, 12.96, 12.96, 13.41, 13.41, 13.41, 13.41, 13.86, 13.86, 13.86, 13.86, 13.86, 13.86, 13.86, 14.3, 14.3, 13.86, 13.86, 13.86, 13.86, 13.86, 14.3, 14.3, 14.3, 14.3, 14.3, 13.86, 14.3, 14.3, 14.3, 14.3, 14.3, 14.3, 14.3, 14.3, 14.3, 14.75, 14.75, 14.75, 15.2, 14.75, 14.75, 15.2, 15.2, 15.2, 15.65, 15.65, 15.65, 15.65, 15.65, 15.65, 15.65, 16.09, 16.09, 15.65, 15.2, 15.2, 15.2, 15.65, 16.09, 16.99, 17.43, 17.43, 18.78, 19.22, 19.67, 21.01, 23.25, 23.69, 21.46, 18.78, 16.54, 16.09, 16.09, 15.65, 15.2, 16.09, 16.99, 16.99, 16.09, 15.65, 15.2, 15.2, 14.75, 14.3, 14.3, 14.3, 14.3, 13.41, 12.07, 11.18, 10.73, 10.73, 12.52, 12.52, 12.52, 12.52, 12.52, 12.96, 12.96, 12.96, 12.96, 12.96, 13.41, 13.41, 13.41, 13.41, 13.86, 13.86, 13.86, 13.86, 13.86, 13.86, 13.86, 13.86, 13.86, 13.86, 13.86, 13.86, 13.86, 13.86, 13.86, 13.86, 13.86, 13.86, 13.86, 14.3, 14.3, 14.3, 14.3, 14.3, 14.3, 14.3, 14.3, 14.3, 14.75, 14.75, 14.75, 14.75, 14.75, 15.2, 15.2, 15.2, 15.65, 15.65, 15.65, 15.65, 15.65, 15.65, 16.09, 16.09, 16.09, 15.65, 15.65, 15.65, 15.65, 16.09, 16.54, 16.99, 17.88, 18.33, 18.78, 19.67, 19.67, 20.56, 22.8, 25.03, 22.35, 17.43, 15.65, 16.09, 16.99, 16.54, 15.2, 15.2, 16.54, 16.99, 16.99, 16.09, 15.2, 14.75, 14.75, 14.75, 14.3, 14.3, 14.3, 13.86, 12.96, 12.07, 11.18, 11.18, 12.07, 12.07, 12.07, 12.52, 12.52, 12.52, 12.52, 12.52, 12.96, 12.96, 12.96, 12.96, 12.96, 13.41, 13.41, 13.41, 13.41, 13.41, 13.41, 13.41, 13.41, 13.86, 13.86, 13.86, 13.86, 13.86, 13.86, 13.86, 13.86, 13.86, 13.86, 13.86, 13.86, 13.86, 14.3, 14.3, 14.3, 14.3, 14.3, 14.3, 14.3, 14.3, 14.75, 14.75, 14.75, 14.75, 14.75, 14.75, 15.2, 15.2, 15.65, 15.65, 15.65, 15.65, 15.65, 16.09, 16.09, 16.09, 16.09, 16.09, 16.09, 15.65, 16.09, 16.09, 16.54, 16.99, 17.43, 18.33, 18.78, 19.67, 20.12, 20.56, 22.8, 25.03, 23.69, 17.88, 15.2, 15.65, 16.99, 16.54, 15.65, 15.2, 15.65, 16.54, 16.99, 16.54, 15.65, 14.75, 14.3, 14.3, 14.3, 14.3, 14.3, 13.86, 13.41, 12.52, 11.62, 11.62, 12.07, 12.07, 12.07, 12.07, 12.07, 12.07, 12.52, 12.52, 12.52, 12.52, 12.52, 12.96, 12.96, 12.96, 12.96, 13.41, 12.96, 12.96, 13.41, 13.41, 13.41, 13.41, 13.41, 13.41, 13.86, 13.86, 13.86, 13.86, 13.86, 13.86, 13.86, 13.86, 13.86, 13.86, 13.86, 13.86, 13.86, 14.3, 14.3, 14.3, 14.3, 14.3, 14.3, 14.75, 14.75, 14.75, 14.75, 14.75, 15.2, 15.2, 15.65, 15.65, 15.65, 15.65, 15.65, 15.65, 16.09, 16.09, 16.09, 16.09, 16.09, 16.09, 16.09, 16.09, 16.54, 16.99, 17.43, 18.33, 19.22, 19.67, 20.56, 21.46, 22.8, 25.03, 24.14, 20.12, 16.54, 16.09, 16.54, 16.54, 15.65, 15.2, 15.2, 16.09, 16.99, 16.54, 15.65, 14.75, 14.3, 14.3, 14.3, 14.3, 14.3, 14.3, 13.86, 12.52, 12.07, 12.07, 11.62, 11.62, 11.62, 12.07, 12.07, 12.07, 12.07, 12.07, 12.52, 12.52, 12.52, 12.52, 12.52, 12.52, 12.52, 12.52, 12.96, 12.96, 12.96, 12.96, 12.96, 13.41, 13.41, 13.41, 13.41, 13.86, 13.86, 13.86, 13.86, 13.86, 13.86, 13.86, 13.86, 13.86, 13.86, 13.86, 13.86, 13.86, 13.86, 14.3, 14.3, 14.3, 14.3, 14.3, 14.3, 14.75, 14.75, 14.75, 14.75, 15.2, 15.2, 15.65, 15.65, 15.65, 15.65, 15.65, 16.09, 16.09, 16.09, 16.09, 16.09, 16.09, 16.09, 16.54, 16.54, 16.99, 17.43, 17.88, 18.78, 19.67, 20.56, 21.9, 23.25, 24.59, 23.69, 21.46, 18.33, 16.54, 16.09, 16.09, 15.65, 15.65, 15.65, 16.09, 16.54, 16.54, 16.09, 15.2, 14.3, 13.86, 13.86, 14.3, 14.3, 14.3, 14.3, 13.41, 12.52, 12.52, 11.62, 11.62, 11.62, 11.62, 11.62, 11.62, 12.07, 12.07, 12.07, 12.07, 12.07, 12.52, 12.52, 12.07, 12.07, 12.52, 12.52, 12.52, 12.96, 12.96, 12.96, 12.96, 13.41, 13.41, 13.41, 13.41, 13.41, 13.86, 13.86, 13.86, 13.86, 13.86, 13.86, 13.86, 13.86, 13.86, 13.86, 13.86, 13.86, 13.86, 13.86, 14.3, 14.3, 14.3, 14.3, 14.3, 14.3, 14.75, 14.75, 15.2, 15.2, 15.2, 15.65, 15.65, 15.65, 15.65, 15.65, 15.65, 16.09, 16.09, 16.09, 16.09, 16.54, 16.54, 16.54, 16.99, 17.43, 17.88, 18.78, 19.22, 20.56, 21.9, 23.69, 24.59, 23.25, 21.46, 19.67, 17.88, 15.65, 14.75, 15.65, 16.54, 16.54, 16.54, 16.09, 16.09, 15.65, 15.2, 14.75, 14.3, 14.3, 14.3, 14.3, 14.3, 14.3, 13.86, 12.96, 12.96, 11.18, 11.18, 11.18, 11.18, 11.62, 11.62, 11.62, 11.62, 11.62, 12.07, 12.07, 12.07, 12.07, 12.07, 12.07, 12.07, 12.52, 12.52, 12.52, 12.52, 12.96, 12.96, 12.96, 12.96, 13.41, 13.41, 13.41, 13.41, 13.41, 13.41, 13.41, 13.41, 13.41, 13.41, 13.41, 13.41, 13.41, 13.86, 13.86, 13.86, 13.86, 13.86, 14.3, 14.3, 14.3, 14.3, 14.3, 14.3, 14.75, 14.75, 15.2, 15.2, 15.65, 15.65, 15.65, 15.65, 15.65, 15.65, 16.09, 16.09, 16.09, 16.54, 16.54, 16.54, 16.99, 16.99, 17.43, 17.88, 18.33, 19.22, 20.12, 21.46, 23.69, 25.03, 23.69, 21.46, 20.12, 18.78, 16.09, 14.3, 14.75, 16.54, 16.99, 16.54, 16.09, 15.2, 15.2, 15.2, 15.2, 14.75, 14.3, 14.3, 14.3, 14.3, 14.3, 13.86, 13.41, 13.41, 10.73, 10.73, 11.18, 11.18, 11.18, 11.18, 11.18, 11.62, 11.62, 11.62, 11.62, 11.62, 11.62, 11.62, 11.62, 12.07, 12.07, 12.07, 12.52, 12.52, 12.52, 12.96, 12.96, 12.96, 12.96, 13.41, 13.41, 13.41, 13.41, 13.41, 13.41, 13.41, 13.41, 13.41, 13.41, 13.41, 13.41, 13.41, 13.41, 13.86, 13.86, 13.86, 13.86, 13.86, 13.86, 14.3, 14.3, 14.3, 14.75, 14.75, 15.2, 15.2, 15.65, 15.65, 15.65, 15.65, 15.65, 15.65, 16.09, 16.09, 16.09, 16.54, 16.54, 16.99, 16.99, 17.43, 17.43, 17.88, 18.33, 18.78, 20.12, 21.01, 22.8, 25.48, 25.03, 22.35, 20.12, 18.78, 16.54, 15.2, 15.2, 16.09, 16.99, 16.99, 16.09, 14.75, 14.3, 14.75, 14.75, 14.75, 14.75, 14.75, 14.3, 14.3, 14.3, 14.3, 13.86, 13.41, 10.73, 10.73, 10.73, 10.73, 10.73, 11.18, 11.18, 11.18, 11.18, 11.18, 11.18, 11.18, 11.18, 11.62, 11.62, 11.62, 11.62, 12.07, 12.07, 12.52, 12.52, 12.52, 12.52, 12.96, 12.96, 12.96, 12.96, 13.41, 13.41, 13.41, 13.41, 13.41, 13.41, 13.41, 13.41, 13.41, 13.41, 13.41, 13.41, 13.41, 13.41, 13.86, 13.86, 13.86, 13.86, 13.86, 14.3, 14.3, 14.75, 14.75, 15.2, 15.2, 15.2, 15.65, 15.65, 15.65, 15.65, 15.65, 16.09, 16.09, 16.09, 16.54, 16.54, 16.99, 16.99, 17.43, 17.43, 17.88, 18.33, 18.78, 19.67, 20.56, 21.9, 24.59, 25.93, 23.69, 21.01, 18.33, 16.54, 16.09, 16.09, 16.54, 16.99, 16.99, 16.09, 15.2, 14.3, 14.3, 14.3, 14.75, 14.75, 14.75, 14.75, 14.3, 14.3, 14.3, 14.3, 13.86, 10.28, 10.28, 10.28, 10.73, 10.73, 10.73, 10.73, 10.73, 11.18, 10.73, 10.73, 11.18, 11.18, 11.18, 11.18, 11.62, 11.62, 11.62, 12.07, 12.07, 12.07, 12.52, 12.52, 12.52, 12.96, 12.96, 12.96, 12.96, 12.96, 12.96, 13.41, 13.41, 13.41, 13.41, 13.41, 13.41, 13.41, 13.41, 13.41, 13.41, 13.41, 13.86, 13.86, 13.86, 13.86, 13.86, 14.3, 14.3, 14.75, 14.75, 15.2, 15.2, 15.2, 15.65, 15.65, 15.65, 15.65, 15.65, 16.09, 16.09, 16.09, 16.54, 16.54, 16.99, 16.99, 17.43, 17.43, 17.88, 18.33, 18.78, 19.22, 20.12, 21.01, 23.25, 25.48, 25.48, 22.8, 18.78, 16.54, 16.09, 16.54, 16.99, 16.99, 16.54, 16.09, 15.2, 14.75, 14.3, 14.3, 14.3, 14.75, 14.75, 14.75, 14.3, 14.3, 14.3, 14.3, 14.3, 10.28, 10.28, 10.28, 10.28, 10.28, 10.28, 10.73, 10.73, 10.73, 10.73, 10.73, 10.73, 10.73, 11.18, 11.18, 11.18, 11.62, 11.62, 11.62, 12.07, 12.07, 12.07, 12.52, 12.52, 12.52, 12.96, 12.96, 12.96, 12.96, 12.96, 12.96, 12.96, 12.96, 12.96, 12.96, 12.96, 12.96, 13.41, 13.41, 13.41, 13.41, 13.41, 13.86, 13.86, 13.86, 13.86, 14.3, 14.3, 14.75, 14.75, 14.75, 15.2, 15.2, 15.2, 15.65, 15.65, 15.65, 15.65, 16.09, 16.09, 16.09, 16.54, 16.54, 16.99, 16.99, 17.43, 17.43, 17.88, 18.33, 18.78, 19.22, 20.12, 21.01, 22.35, 24.14, 25.48, 24.59, 21.01, 16.99, 16.09, 16.54, 16.99, 16.99, 16.09, 15.65, 15.2, 14.75, 14.3, 14.3, 14.3, 14.3, 14.3, 14.3, 14.3, 14.3, 14.3, 14.3, 14.3, 9.83, 9.83, 9.83, 10.28, 10.28, 10.28, 10.28, 10.28, 10.28, 10.28, 10.73, 10.73, 10.73, 10.73, 11.18, 11.18, 11.18, 11.18, 11.62, 11.62, 12.07, 12.07, 12.07, 12.52, 12.52, 12.52, 12.96, 12.96, 12.96, 12.96, 12.96, 12.96, 12.96, 12.96, 12.96, 12.96, 12.96, 12.96, 13.41, 13.41, 13.41, 13.41, 13.86, 13.86, 13.86, 13.86, 13.86, 14.3, 14.3, 14.75, 14.75, 14.75, 15.2, 15.2, 15.2, 15.65, 15.65, 15.65, 15.65, 16.09, 16.09, 16.54, 16.54, 16.99, 16.99, 17.43, 17.43, 17.88, 18.33, 18.78, 18.78, 19.67, 20.56, 21.46, 22.8, 24.14, 25.03, 23.25, 19.67, 16.99, 16.09, 16.54, 16.99, 16.09, 15.2, 14.75, 14.75, 14.75, 14.3, 14.3, 13.86, 13.86, 13.86, 14.3, 14.3, 14.3, 14.3, 14.3, 9.83, 9.83, 9.83, 9.83, 9.83, 10.28, 9.83, 10.28, 10.28, 10.28, 10.28, 10.28, 10.73, 10.73, 10.73, 10.73, 11.18, 11.18, 11.18, 11.62, 11.62, 12.07, 12.07, 12.07, 12.52, 12.52, 12.52, 12.96, 12.96, 12.96, 12.96, 12.96, 12.96, 12.96, 12.96, 12.96, 12.96, 12.96, 13.41, 13.41, 13.41, 13.41, 13.41, 13.86, 13.86, 13.86, 13.86, 14.3, 14.3, 14.3, 14.75, 14.75, 14.75, 15.2, 15.2, 15.65, 15.65, 15.65, 15.65, 16.09, 16.09, 16.54, 16.54, 16.99, 16.99, 17.43, 17.88, 17.88, 18.33, 18.78, 18.78, 19.67, 20.12, 21.01, 21.9, 22.8, 24.14, 24.14, 22.8, 19.67, 16.99, 15.65, 15.65, 15.65, 15.2, 14.75, 14.3, 14.3, 14.3, 13.86, 13.86, 13.41, 13.86, 14.3, 14.3, 14.3, 14.3, 14.3, 9.39, 9.39, 9.83, 9.83, 9.83, 9.83, 9.83, 9.83, 9.83, 10.28, 10.28, 10.28, 10.28, 10.73, 10.73, 10.73, 10.73, 11.18, 11.18, 11.18, 11.62, 11.62, 12.07, 12.07, 12.07, 12.52, 12.52, 12.52, 12.52, 12.96, 12.96, 12.96, 12.96, 12.96, 12.96, 12.96, 12.96, 12.96, 13.41, 13.41, 13.41, 13.41, 13.41, 13.86, 13.86, 13.86, 13.86, 14.3, 14.3, 14.3, 14.3, 14.75, 14.75, 14.75, 15.2, 15.2, 15.65, 15.65, 15.65, 16.09, 16.09, 16.09, 16.54, 16.99, 16.99, 17.43, 17.88, 17.88, 18.33, 18.33, 18.78, 19.22, 20.12, 20.56, 21.46, 22.35, 22.8, 23.69, 23.25, 22.35, 20.12, 16.54, 13.86, 13.86, 14.3, 14.3, 14.3, 13.86, 13.86, 13.41, 13.41, 13.86, 13.86, 14.3, 13.86, 13.86, 13.86, 13.86, 9.39, 9.39, 9.39, 9.83, 9.39, 9.83, 9.83, 9.83, 9.83, 9.83, 10.28, 10.28, 10.28, 10.28, 10.73, 10.73, 10.73, 11.18, 11.18, 11.18, 11.62, 11.62, 12.07, 12.07, 12.07, 12.52, 12.52, 12.52, 12.52, 12.52, 12.96, 12.96, 12.96, 12.96, 12.96, 12.96, 12.96, 13.41, 13.41, 13.41, 13.41, 13.41, 13.41, 13.41, 13.86, 13.86, 13.86, 13.86, 14.3, 14.3, 14.3, 14.75, 14.75, 14.75, 15.2, 15.2, 15.65, 15.65, 15.65, 16.09, 16.09, 16.09, 16.54, 16.99, 16.99, 17.43, 17.88, 17.88, 18.33, 18.33, 18.78, 19.22, 19.67, 20.12, 21.01, 21.46, 22.35, 22.8, 23.25, 23.25, 21.9, 19.22, 13.86, 11.62, 12.52, 13.41, 14.3, 13.86, 13.41, 12.96, 13.41, 13.86, 13.86, 13.41, 13.41, 12.96, 12.96, 12.96, 9.39, 9.39, 9.39, 9.39, 9.39, 9.39, 9.83, 9.83, 9.83, 9.83, 9.83, 10.28, 10.28, 10.28, 10.28, 10.73, 10.73, 10.73, 11.18, 11.18, 11.18, 11.62, 11.62, 12.07, 12.07, 12.07, 12.52, 12.52, 12.52, 12.52, 12.52, 12.96, 12.96, 12.96, 12.96, 12.96, 12.96, 13.41, 13.41, 13.41, 13.41, 13.41, 13.41, 13.41, 13.86, 13.86, 13.86, 13.86, 13.86, 14.3, 14.3, 14.3, 14.75, 14.75, 15.2, 15.2, 15.65, 15.65, 15.65, 16.09, 16.09, 16.09, 16.54, 16.99, 16.99, 17.43, 17.43, 17.88, 18.33, 18.33, 18.33, 18.78, 19.22, 20.12, 20.56, 21.01, 21.9, 22.35, 22.8, 22.8, 22.8, 21.9, 16.99, 11.62, 9.83, 12.07, 13.86, 14.3, 12.07, 12.52, 12.52, 12.96, 12.52, 12.52, 12.07, 11.62, 11.62, 11.62, 9.39, 9.39, 8.94, 9.39, 9.39, 9.39, 9.39, 9.39, 9.83, 9.83, 9.83, 9.83, 10.28, 10.28, 10.28, 10.28, 10.73, 10.73, 11.18, 11.18, 11.18, 11.62, 11.62, 12.07, 12.07, 12.07, 12.52, 12.52, 12.52, 12.52, 12.52, 12.52, 12.96, 12.96, 12.96, 12.96, 12.96, 13.41, 13.41, 13.41, 13.41, 13.41, 13.41, 13.41, 13.41, 13.86, 13.86, 13.86, 13.86, 14.3, 14.3, 14.3, 14.75, 14.75, 15.2, 15.2, 15.65, 15.65, 15.65, 16.09, 16.09, 16.09, 16.54, 16.99, 16.99, 17.43, 17.43, 17.88, 17.88, 18.33, 18.33, 18.33, 18.78, 19.67, 20.12, 20.56, 21.01, 21.9, 22.35, 22.8, 22.8, 22.8, 20.12, 13.86, 8.05, 9.39, 13.86, 12.52, 11.18, 10.73, 11.18, 11.18, 10.73, 10.28, 10.28, 9.83, 9.83, 9.83, 8.94, 8.94, 8.94, 9.39, 9.39, 9.39, 9.39, 9.39, 9.39, 9.83, 9.83, 9.83, 9.83, 10.28, 10.28, 10.28, 10.73, 10.73, 10.73, 11.18, 11.18, 11.62, 11.62, 12.07, 12.07, 12.07, 12.07, 12.52, 12.52, 12.52, 12.52, 12.52, 12.96, 12.96, 12.96, 12.96, 12.96, 13.41, 13.41, 13.41, 13.41, 13.41, 13.41, 13.41, 13.41, 13.41, 13.86, 13.86, 13.86, 13.86, 14.3, 14.3, 14.75, 14.75, 15.2, 15.2, 15.2, 15.65, 15.65, 15.65, 16.09, 16.09, 16.54, 16.54, 16.99, 16.99, 17.43, 17.43, 17.88, 17.88, 18.33, 18.33, 18.33, 19.22, 19.67, 20.12, 20.56, 21.01, 21.9, 22.35, 22.8, 22.8, 21.46, 16.09, 8.05, 10.73, 12.52, 12.07, 10.28, 9.39, 9.39, 9.83, 8.94, 8.49, 8.49, 8.05, 8.05, 8.05, 8.94, 8.94, 8.94, 8.94, 9.39, 9.39, 9.39, 9.39, 9.39, 9.39, 9.83, 9.83, 9.83, 9.83, 10.28, 10.28, 10.28, 10.73, 10.73, 11.18, 11.18, 11.18, 11.62, 12.07, 12.07, 12.07, 12.07, 12.52, 12.52, 12.52, 12.52, 12.52, 12.96, 12.96, 12.96, 12.96, 13.41, 13.41, 13.41, 13.41, 13.41, 13.41, 13.41, 13.41, 13.41, 13.41, 13.86, 13.86, 13.86, 13.86, 14.3, 14.3, 14.3, 14.75, 15.2, 15.2, 15.2, 15.65, 15.65, 15.65, 16.09, 16.09, 16.54, 16.54, 16.99, 16.99, 17.43, 17.43, 17.43, 17.88, 17.88, 17.88, 18.33, 18.33, 19.22, 19.67, 20.12, 21.01, 21.46, 21.9, 22.8, 22.8, 22.35, 18.78, 5.81, 8.94, 11.18, 11.62, 10.28, 8.94, 8.49, 8.94, 8.94, 8.05, 7.6, 7.6, 7.6, 7.6, 8.94, 8.94, 8.94, 8.94, 8.94, 9.39, 9.39, 9.39, 9.39, 9.39, 9.39, 9.83, 9.83, 9.83, 9.83, 10.28, 10.28, 10.73, 10.73, 10.73, 11.18, 11.18, 11.62, 11.62, 12.07, 12.07, 12.07, 12.52, 12.52, 12.52, 12.52, 12.96, 12.96, 12.96, 12.96, 12.96, 13.41, 13.41, 13.41, 13.41, 13.41, 13.41, 13.41, 13.41, 13.41, 13.41, 13.86, 13.86, 13.86, 14.3, 14.3, 14.3, 14.3, 14.75, 14.75, 15.2, 15.2, 15.2, 15.65, 15.65, 15.65, 16.09, 16.09, 16.54, 16.54, 16.99, 16.99, 17.43, 17.43, 17.43, 17.88, 17.88, 17.88, 18.33, 18.78, 19.22, 20.12, 20.56, 21.01, 21.9, 22.35, 22.8, 23.69, 12.96, 6.71, 8.05, 10.73, 11.62, 10.73, 9.83, 9.39, 9.39, 9.83, 8.94, 8.49, 8.49, 8.49, 8.49, 8.94, 8.94, 8.94, 8.94, 8.94, 9.39, 9.39, 9.39, 9.39, 9.39, 9.39, 9.83, 9.83, 9.83, 9.83, 10.28, 10.28, 10.73, 10.73, 10.73, 11.18, 11.18, 11.62, 11.62, 12.07, 12.07, 12.07, 12.52, 12.52, 12.52, 12.52, 12.96, 12.96, 12.96, 12.96, 12.96, 13.41, 13.41, 13.41, 13.41, 13.41, 13.41, 13.41, 13.41, 13.41, 13.86, 13.86, 13.86, 13.86, 14.3, 14.3, 14.3, 14.75, 14.75, 14.75, 15.2, 15.2, 15.2, 15.2, 15.65, 15.65, 15.65, 16.09, 16.09, 16.54, 16.99, 16.99, 17.43, 17.43, 17.43, 17.43, 17.88, 17.88, 17.88, 18.33, 18.78, 19.22, 19.67, 20.56, 21.46, 21.9, 22.8, 23.25, 16.54, 9.39, 8.49, 10.73, 12.07, 11.62, 10.73, 10.28, 10.73, 11.18, 10.73, 10.28, 9.83, 9.83, 9.83, 8.94, 8.94, 8.94, 8.94, 9.39, 9.39, 9.39, 9.39, 9.39, 9.39, 9.39, 9.83, 9.83, 9.83, 9.83, 10.28, 10.28, 10.28, 10.73, 10.73, 11.18, 11.18, 11.18, 11.62, 12.07, 12.07, 12.07, 12.52, 12.52, 12.52, 12.52, 12.96, 12.96, 12.96, 12.96, 13.41, 13.41, 13.41, 13.41, 13.41, 13.41, 13.41, 13.41, 13.41, 13.41, 13.86, 13.86, 13.86, 13.86, 13.86, 14.3, 14.3, 14.75, 14.75, 14.75, 14.75, 14.75, 15.2, 15.2, 15.2, 15.65, 15.65, 16.09, 16.09, 16.54, 16.54, 16.99, 16.99, 17.43, 17.43, 17.43, 17.88, 17.88, 17.88, 17.88, 18.33, 18.78, 19.67, 20.56, 21.46, 21.9, 22.8, 24.59, 19.67, 12.07, 9.39, 10.73, 12.52, 12.96, 11.62, 10.73, 11.18, 12.07, 12.07, 11.62, 11.18, 11.18, 11.18, 8.94, 8.94, 8.94, 8.94, 9.39, 9.39, 9.39, 9.39, 9.39, 9.39, 9.39, 9.83, 9.83, 9.83, 9.83, 10.28, 10.28, 10.28, 10.73, 10.73, 11.18, 11.18, 11.18, 11.62, 11.62, 12.07, 12.07, 12.52, 12.52, 12.52, 12.52, 12.96, 12.96, 12.96, 12.96, 13.41, 13.41, 13.41, 13.41, 13.41, 13.41, 13.41, 13.41, 13.41, 13.41, 13.86, 13.86, 13.86, 13.86, 13.86, 14.3, 14.3, 14.3, 14.75, 14.75, 14.75, 14.75, 14.75, 15.2, 15.2, 15.2, 15.65, 15.65, 16.09, 16.09, 16.54, 16.54, 16.99, 16.99, 16.99, 17.43, 17.43, 17.43, 17.88, 17.88, 18.33, 18.78, 19.22, 19.67, 20.56, 21.46, 23.69, 24.59, 21.9, 13.86, 9.39, 10.28, 12.07, 12.96, 12.07, 11.18, 11.18, 12.07, 12.07, 12.07, 11.18, 11.18, 11.18, 8.94, 8.94, 8.94, 9.39, 9.39, 9.39, 9.39, 9.39, 9.39, 9.83, 9.83, 9.83, 9.83, 9.83, 9.83, 10.28, 10.28, 10.28, 10.73, 10.73, 11.18, 11.18, 11.18, 11.62, 11.62, 12.07, 12.07, 12.07, 12.52, 12.52, 12.52, 12.96, 12.96, 12.96, 12.96, 12.96, 13.41, 13.41, 13.41, 13.41, 13.41, 13.41, 13.41, 13.41, 13.86, 13.86, 13.86, 13.86, 13.86, 13.86, 14.3, 14.3, 14.3, 14.3, 14.75, 14.75, 14.75, 14.75, 14.75, 15.2, 15.2, 15.2, 15.65, 15.65, 16.09, 16.09, 16.54, 16.54, 16.99, 16.99, 16.99, 17.43, 17.43, 17.88, 17.88, 17.88, 18.33, 18.78, 19.22, 20.12, 21.9, 22.8, 24.59, 23.25, 16.09, 8.94, 8.49, 10.73, 12.07, 11.62, 10.73, 10.73, 10.73, 11.18, 11.18, 10.28, 10.28, 10.28, 9.39, 9.39, 9.39, 9.39, 9.39, 9.39, 9.83, 9.83, 9.83, 9.83, 9.83, 9.83, 9.83, 10.28, 10.28, 10.28, 10.28, 10.73, 10.73, 10.73, 11.18, 11.18, 11.18, 11.62, 11.62, 12.07, 12.07, 12.07, 12.52, 12.52, 12.52, 12.96, 12.96, 12.96, 12.96, 12.96, 13.41, 13.41, 13.41, 13.41, 13.41, 13.41, 13.41, 13.41, 13.86, 13.86, 13.86, 13.86, 13.86, 13.86, 14.3, 14.3, 14.3, 14.3, 14.3, 14.75, 14.75, 14.75, 14.75, 15.2, 15.2, 15.2, 15.65, 15.65, 15.65, 16.09, 16.09, 16.54, 16.54, 16.99, 16.99, 16.99, 17.43, 17.43, 17.43, 17.88, 18.33, 18.33, 19.22, 20.56, 21.46, 22.35, 23.69, 23.69, 18.78, 9.83, 6.71, 9.39, 11.18, 11.18, 10.28, 9.83, 9.83, 9.83, 9.83, 9.39, 9.39, 9.39, 9.39, 9.39, 9.39, 9.39, 9.83, 9.83, 9.83, 9.83, 9.83, 10.28, 10.28, 10.28, 10.28, 10.28, 10.28, 10.28, 10.73, 10.73, 10.73, 11.18, 11.18, 11.18, 11.18, 11.62, 11.62, 12.07, 12.07, 12.07, 12.52, 12.52, 12.52, 12.96, 12.96, 12.96, 12.96, 12.96, 12.96, 13.41, 13.41, 13.41, 13.41, 13.41, 13.41, 13.41, 13.41, 13.86, 13.86, 13.86, 13.86, 13.86, 13.86, 14.3, 14.3, 14.3, 14.3, 14.3, 14.75, 14.75, 14.75, 14.75, 15.2, 15.2, 15.2, 15.65, 15.65, 15.65, 16.09, 16.09, 16.54, 16.54, 16.54, 16.99, 16.99, 17.43, 17.43, 17.43, 17.88, 18.33, 18.78, 20.12, 21.01, 21.9, 23.25, 23.69, 20.56, 12.07, 6.71, 7.6, 10.28, 11.18, 10.28, 9.39, 9.39, 8.94, 8.94, 8.94, 8.94, 8.94, 9.83, 9.83, 9.83, 9.83, 9.83, 9.83, 10.28, 10.28, 10.28, 10.28, 10.28, 10.28, 10.28, 10.73, 10.73, 10.73, 10.73, 10.73, 11.18, 11.18, 11.18, 11.18, 11.62, 11.62, 12.07, 12.07, 12.07, 12.07, 12.52, 12.52, 12.52, 12.96, 12.96, 12.96, 12.96, 12.96, 12.96, 13.41, 13.41, 13.41, 13.41, 13.41, 13.41, 13.41, 13.41, 13.86, 13.86, 13.86, 13.86, 13.86, 13.86, 14.3, 14.3, 14.3, 14.3, 14.3, 14.3, 14.3, 14.75, 14.75, 14.75, 14.75, 15.2, 15.2, 15.65, 15.65, 15.65, 16.09, 16.09, 16.54, 16.54, 16.54, 16.99, 16.99, 17.43, 17.43, 17.43, 18.33, 18.78, 19.22, 20.56, 21.46, 22.8, 23.25, 21.46, 15.2, 8.49, 6.71, 8.94, 10.73, 10.73, 9.83, 8.94, 8.94, 8.49, 8.94, 8.94, 8.94, 9.83, 9.83, 9.83, 9.83, 10.28, 10.28, 10.28, 10.28, 10.28, 10.73, 10.73, 10.73, 10.73, 10.73, 10.73, 10.73, 11.18, 11.18, 11.18, 11.18, 11.18, 11.62, 11.62, 11.62, 12.07, 12.07, 12.07, 12.52, 12.52, 12.52, 12.52, 12.52, 12.96, 12.96, 12.96, 12.96, 12.96, 12.96, 13.41, 13.41, 13.41, 13.41, 13.41, 13.41, 13.41, 13.41, 13.41, 13.86, 13.86, 13.86, 13.86, 13.86, 13.86, 14.3, 14.3, 14.3, 14.3, 14.3, 14.3, 14.75, 14.75, 14.75, 14.75, 15.2, 15.2, 15.2, 15.65, 15.65, 16.09, 16.09, 16.09, 16.54, 16.54, 16.99, 16.99, 16.99, 17.43, 17.88, 18.33, 18.78, 19.22, 21.01, 22.35, 22.8, 21.9, 17.43, 11.18, 6.71, 7.6, 9.83, 10.73, 9.83, 8.94, 8.49, 8.49, 8.94, 8.94, 8.94, 9.83, 9.83, 9.83, 9.83, 10.28, 10.28, 10.28, 10.28, 10.28, 10.73, 10.73, 10.73, 10.73, 10.73, 10.73, 10.73, 11.18, 11.18, 11.18, 11.18, 11.18, 11.62, 11.62, 11.62, 12.07, 12.07, 12.07, 12.52, 12.52, 12.52, 12.52, 12.52, 12.96, 12.96, 12.96, 12.96, 12.96, 12.96, 13.41, 13.41, 13.41, 13.41, 13.41, 13.41, 13.41, 13.41, 13.41, 13.86, 13.86, 13.86, 13.86, 13.86, 13.86, 14.3, 14.3, 14.3, 14.3, 14.3, 14.3, 14.75, 14.75, 14.75, 14.75, 15.2, 15.2, 15.2, 15.65, 15.65, 16.09, 16.09, 16.09, 16.54, 16.54, 16.99, 16.99, 16.99, 17.43, 17.88, 18.33, 18.78, 19.22, 20.56, 21.46, 21.9, 21.9, 19.22, 14.3, 8.49, 6.71, 8.49, 9.83, 9.83, 8.94, 8.49, 8.49, 8.94, 8.94, 8.94]}, {"header": {"parameterCategory": 1, "parameterNumber": 3, "dx": 0.06612293990616946, "dy": 0.0552356325346848, "nx": 98, "ny": 59, "la1": 35.046912555036876, "la2": 31.78801023549047, "lo1": -121.43107172385933, "lo2": -114.95102361305473, "refTime": "2026041309"}, "data": [-9.83, -9.83, -9.83, -9.83, -9.83, -9.39, -9.39, -9.39, -8.94, -8.94, -8.94, -8.94, -8.49, -8.49, -8.05, -8.05, -8.05, -7.6, -7.15, -7.15, -6.71, -6.71, -6.26, -6.26, -5.81, -5.81, -5.36, -4.92, -4.02, -3.58, -3.13, -2.68, -2.24, -2.24, -2.24, -2.68, -2.68, -2.68, -3.13, -3.13, -3.13, -3.13, -3.13, -3.13, -2.24, -1.34, -0.45, 0.0, 0.0, 0.0, -0.45, -0.89, -0.89, -0.89, -1.34, -1.34, -1.34, -1.34, -1.34, -1.34, -0.89, -0.45, 0.0, 0.0, 0.0, 0.0, 0.0, -0.45, -1.34, -1.79, -2.24, -2.24, -2.24, -2.24, -1.79, -1.79, -1.34, -1.34, -1.34, -0.89, -0.89, -0.89, -0.89, -0.89, -0.45, -0.45, 0.0, 0.0, 0.0, 0.45, 1.34, 2.68, 3.58, 4.02, 4.02, 3.58, 3.58, 3.58, -9.83, -9.83, -9.83, -9.83, -9.39, -9.39, -9.39, -9.39, -8.94, -8.94, -8.94, -8.94, -8.49, -8.49, -8.49, -8.05, -8.05, -7.6, -7.15, -7.15, -7.15, -6.71, -6.26, -6.26, -6.26, -5.81, -5.36, -4.92, -4.47, -4.02, -3.13, -2.68, -2.68, -2.24, -2.24, -2.68, -2.68, -2.68, -3.13, -3.13, -2.68, -2.68, -2.24, -1.79, -0.89, 0.0, 0.0, 0.0, -0.45, -0.89, -1.34, -1.34, -1.34, -1.34, -1.34, -1.34, -1.34, -1.34, -1.34, -0.89, -0.89, 0.0, 0.0, 0.0, 0.0, 0.0, 0.0, -0.89, -1.34, -1.79, -2.68, -2.68, -2.68, -2.24, -1.79, -1.79, -1.34, -1.34, -1.34, -0.89, -0.89, -0.89, -0.89, -0.89, -0.45, -0.45, 0.0, 0.0, 0.0, 0.45, 1.34, 2.68, 3.58, 4.02, 4.02, 3.58, 3.58, 3.58, -9.83, -9.83, -9.39, -9.39, -9.39, -9.39, -9.39, -9.39, -8.94, -8.94, -8.94, -8.94, -8.49, -8.49, -8.49, -8.05, -8.05, -7.6, -7.6, -7.15, -7.15, -6.71, -6.26, -6.26, -5.81, -5.81, -5.81, -5.36, -4.92, -4.02, -3.58, -3.13, -2.68, -2.68, -2.68, -2.68, -2.68, -2.68, -2.68, -2.68, -2.24, -1.79, -0.89, 0.0, 0.0, 0.0, -0.45, -0.89, -1.34, -1.34, -1.34, -1.34, -1.34, -1.34, -1.34, -1.34, -1.34, -1.34, -0.89, -0.89, -0.45, 0.0, 0.0, 0.0, 0.0, 0.0, -0.45, -0.89, -1.34, -1.79, -2.68, -2.68, -2.68, -2.24, -1.79, -1.34, -1.34, -1.34, -1.34, -0.89, -0.45, -0.45, -0.45, -0.45, 0.0, 0.0, 0.0, 0.0, 0.0, 0.89, 2.24, 2.68, 3.13, 3.13, 3.58, 3.13, 3.13, 3.58, -9.83, -9.39, -9.39, -9.39, -9.39, -9.39, -9.39, -8.94, -8.94, -8.94, -8.94, -8.94, -8.49, -8.49, -8.49, -8.05, -8.05, -8.05, -7.6, -7.15, -7.15, -7.15, -6.71, -6.26, -5.81, -5.81, -5.81, -5.36, -4.92, -4.47, -4.02, -3.58, -3.13, -2.68, -2.68, -3.13, -2.68, -2.68, -2.24, -1.34, -0.89, 0.0, 0.0, 0.0, 0.0, -0.45, -0.89, -1.34, -1.34, -1.34, -1.34, -1.34, -1.34, -1.34, -1.34, -1.34, -1.34, -0.89, -0.89, -0.89, -0.45, 0.0, 0.0, 0.0, 0.0, -0.45, -0.45, -0.89, -1.34, -1.79, -2.24, -2.68, -2.68, -2.24, -1.79, -1.34, -0.89, -0.89, -1.34, -0.89, -0.45, -0.45, -0.45, 0.0, 0.0, 0.0, 0.0, 0.0, 0.45, 1.34, 2.24, 2.24, 2.24, 2.68, 2.68, 2.68, 3.13, 3.58, -9.39, -9.39, -9.39, -9.39, -9.39, -9.39, -8.94, -8.94, -8.94, -8.94, -8.94, -8.49, -8.49, -8.49, -8.05, -8.05, -8.05, -8.05, -7.6, -7.15, -7.15, -7.15, -6.71, -6.71, -6.26, -6.26, -5.81, -5.81, -4.92, -4.47, -4.02, -4.02, -3.58, -3.13, -3.13, -2.68, -2.24, -1.79, -1.34, 0.0, 0.0, 0.0, 0.0, -0.45, -0.45, -0.89, -0.89, -0.89, -1.34, -1.34, -1.34, -1.34, -1.34, -1.34, -1.34, -1.34, -0.89, -0.89, -0.89, -0.89, 0.0, 0.0, 0.0, 0.0, -0.45, -0.45, -0.45, -0.45, -0.45, -1.34, -1.79, -2.24, -2.68, -2.68, -1.79, -1.34, -0.89, -0.45, -0.45, -0.89, -0.89, -0.45, -0.45, 0.0, 0.0, 0.0, 0.0, 0.45, 1.34, 1.79, 2.24, 1.79, 1.79, 2.24, 2.24, 2.68, 2.68, 3.58, -9.39, -9.39, -9.39, -9.39, -9.39, -8.94, -8.94, -8.94, -8.94, -8.94, -8.94, -8.49, -8.49, -8.49, -8.05, -8.05, -8.05, -7.6, -7.6, -7.15, -7.15, -6.71, -6.26, -6.26, -6.26, -6.26, -6.26, -5.81, -5.36, -4.92, -4.47, -4.02, -4.02, -3.58, -2.68, -2.24, -1.34, -0.45, 0.0, 0.0, 0.45, 0.0, 0.0, -0.45, -0.89, -0.89, -0.89, -1.34, -1.34, -1.34, -1.34, -1.34, -1.34, -1.34, -0.89, -0.89, -0.89, -0.89, -0.45, -0.45, -0.45, 0.0, 0.0, -0.45, -0.45, -0.89, -0.89, -0.45, -0.45, -0.45, -1.34, -1.79, -2.24, -2.68, -2.68, -1.79, -0.89, -0.45, -0.45, -0.89, -0.89, -0.45, 0.0, 0.0, 0.0, 0.45, 0.45, 0.89, 1.79, 1.79, 1.79, 1.79, 1.79, 2.24, 2.24, 2.68, 3.13, 3.58, -9.39, -9.39, -9.39, -9.39, -9.39, -8.94, -8.94, -8.94, -8.94, -8.94, -8.49, -8.49, -8.49, -8.49, -8.05, -8.05, -7.6, -7.6, -7.6, -7.15, -7.15, -6.71, -6.71, -6.26, -5.81, -5.81, -5.81, -5.36, -5.36, -4.92, -4.47, -4.02, -4.02, -3.13, -2.24, -1.34, -0.45, 0.0, 0.0, 0.0, 0.0, 0.0, 0.0, -0.45, -0.89, -0.89, -1.34, -1.34, -1.34, -0.89, -0.89, -1.34, -1.34, -0.89, -0.89, -0.89, -0.89, -0.45, -0.45, -0.45, -0.45, -0.45, -0.45, -0.45, -0.45, -0.45, -0.89, -0.89, -0.45, -0.45, -0.89, -1.34, -1.79, -2.68, -3.13, -2.68, -1.79, -0.89, -0.89, -0.45, -0.45, 0.0, 0.0, 0.45, 0.45, 0.89, 0.89, 1.34, 1.34, 1.79, 1.79, 2.24, 2.24, 2.24, 2.24, 2.68, 3.13, 3.58, -9.39, -9.39, -9.39, -9.39, -8.94, -8.94, -8.94, -8.94, -8.94, -8.49, -8.49, -8.49, -8.49, -8.05, -8.05, -8.05, -7.6, -7.6, -7.6, -7.15, -7.15, -7.15, -6.71, -6.26, -5.81, -5.81, -5.81, -5.36, -5.36, -5.36, -4.92, -4.02, -3.58, -2.24, -1.79, -1.34, -0.89, 0.0, 0.0, 0.0, 0.0, -0.89, -0.89, -0.89, -0.89, -0.89, -0.89, -0.89, -0.89, -0.89, -0.89, -0.89, -0.89, -0.89, -0.89, -0.89, -0.89, -0.89, -0.45, -0.45, -0.45, -0.45, -0.45, -0.45, -0.45, -0.45, -0.89, -0.89, -0.89, -0.45, -0.89, -1.34, -1.79, -2.24, -2.24, -2.68, -2.24, -2.24, -1.79, -0.89, -0.45, 0.0, 0.0, 0.45, 0.45, 0.89, 0.89, 0.89, 1.34, 1.34, 1.79, 1.79, 2.24, 2.24, 2.68, 2.68, 3.13, 3.13, -9.39, -9.39, -9.39, -9.39, -8.94, -8.94, -8.94, -8.94, -8.94, -8.49, -8.49, -8.49, -8.05, -8.05, -8.05, -7.6, -7.6, -7.6, -7.15, -7.15, -6.71, -6.71, -6.26, -6.26, -6.26, -5.81, -5.81, -5.81, -5.81, -5.36, -4.92, -3.58, -2.24, -1.79, -1.79, -1.79, -1.79, -1.34, -0.89, -0.89, -0.89, -0.89, -0.89, -0.89, -0.45, -0.45, 0.0, -0.45, -0.89, -0.89, -0.89, -0.89, -0.89, -0.89, -0.89, -0.89, -0.89, -0.45, -0.45, -0.45, -0.45, -0.45, -0.45, -0.45, -0.45, -0.45, -0.89, -1.34, -0.89, -0.89, -0.89, -1.34, -1.34, -1.34, -1.79, -2.24, -2.24, -2.24, -2.24, -1.79, -1.34, -0.45, 0.0, 0.0, 0.0, 0.0, 0.45, 0.45, 0.89, 1.34, 1.34, 1.79, 1.79, 2.24, 2.24, 2.68, 2.68, 2.68, -9.39, -9.39, -9.39, -8.94, -8.94, -8.94, -8.94, -8.94, -8.49, -8.49, -8.49, -8.49, -8.05, -8.05, -7.6, -7.6, -7.6, -7.15, -7.15, -6.71, -6.26, -6.26, -5.81, -5.81, -5.81, -5.81, -5.36, -5.36, -5.36, -4.92, -4.47, -3.58, -3.13, -3.13, -3.13, -2.68, -2.24, -1.79, -1.34, -1.34, -1.34, -0.89, -0.45, -0.45, 0.0, 0.0, 0.0, -0.45, -0.45, -0.89, -0.89, -0.89, -0.45, -0.45, -0.45, -0.45, -0.45, -0.45, -0.45, -0.45, -0.45, -0.45, 0.0, 0.0, -0.45, -0.45, -0.45, -0.89, -0.89, -0.89, -1.34, -1.34, -1.34, -1.34, -1.79, -2.24, -2.24, -1.79, -1.79, -1.79, -1.79, -1.79, -0.89, -0.89, -0.89, -0.45, 0.0, 0.0, 0.0, 0.45, 0.89, 1.34, 1.34, 1.79, 1.79, 1.79, 2.24, 2.24, -9.39, -9.39, -9.39, -8.94, -8.94, -8.94, -8.94, -8.49, -8.49, -8.49, -8.49, -8.05, -8.05, -8.05, -7.6, -7.6, -7.15, -7.15, -7.15, -6.71, -6.71, -6.26, -6.26, -6.26, -5.81, -5.81, -5.36, -4.92, -4.92, -4.47, -4.47, -4.02, -4.02, -3.58, -3.13, -2.68, -1.79, -1.79, -1.79, -1.79, -1.34, -0.89, -0.45, -0.45, 0.0, 0.0, 0.0, -0.45, -0.45, -0.45, -0.45, -0.89, -0.45, 0.0, 0.0, 0.0, -0.45, -0.45, -0.45, 0.0, 0.0, 0.0, 0.0, 0.0, 0.0, -0.45, -0.45, -0.89, -1.34, -1.34, -1.34, -1.34, -1.34, -1.34, -1.79, -1.79, -2.24, -1.79, -1.79, -1.79, -1.79, -2.24, -2.68, -2.24, -2.24, -1.79, -1.34, -0.45, 0.0, 0.0, 0.0, 0.45, 0.89, 0.89, 1.34, 1.34, 1.79, 2.24, -9.39, -9.39, -8.94, -8.94, -8.94, -8.94, -8.49, -8.49, -8.49, -8.49, -8.05, -8.05, -8.05, -7.6, -7.6, -7.6, -7.15, -7.15, -7.15, -6.71, -6.71, -6.26, -6.26, -6.26, -5.81, -5.81, -5.36, -4.92, -4.92, -4.47, -4.47, -4.02, -4.02, -3.58, -3.13, -2.68, -2.24, -2.24, -2.24, -2.24, -1.79, -0.89, -0.89, -0.45, -0.45, 0.0, -0.45, -0.45, -0.45, -0.45, -0.45, -0.45, -0.89, -0.89, -0.45, -0.45, -0.45, -0.89, -0.45, 0.0, 0.45, 0.45, 0.45, 0.45, 0.45, 0.45, 0.0, -0.89, -1.34, -1.79, -1.79, -1.79, -1.79, -1.79, -1.79, -1.79, -1.79, -1.79, -1.79, -2.24, -2.68, -2.68, -2.24, -2.68, -2.68, -2.24, -1.79, -1.34, -0.89, -0.45, 0.0, 0.0, 0.0, 0.45, 0.89, 1.34, 1.79, 2.24, -9.39, -8.94, -8.94, -8.94, -8.94, -8.49, -8.49, -8.49, -8.49, -8.05, -8.05, -8.05, -8.05, -7.6, -7.6, -7.6, -7.15, -7.15, -6.71, -6.71, -6.26, -6.26, -6.26, -5.81, -5.81, -5.36, -5.36, -4.92, -4.92, -4.47, -4.47, -4.02, -4.02, -3.58, -3.13, -3.13, -3.13, -3.13, -2.68, -2.24, -1.79, -1.34, -0.89, -0.45, 0.0, -0.45, -0.45, -0.45, 0.0, -0.45, -0.45, -0.45, 0.0, 0.0, 0.0, -0.45, -0.45, -0.89, -1.34, 0.0, 0.45, 0.45, 0.45, 0.89, 1.34, 1.34, 1.34, 0.45, -0.89, -2.24, -3.13, -2.68, -2.68, -2.68, -2.24, -1.79, -1.79, -1.79, -2.24, -3.13, -3.13, -2.68, -2.24, -2.24, -2.24, -2.24, -2.24, -1.79, -1.34, -0.89, -0.45, 0.0, 0.0, 0.45, 0.89, 1.34, 1.79, 2.24, -8.94, -8.94, -8.94, -8.94, -8.94, -8.49, -8.49, -8.49, -8.05, -8.05, -8.05, -8.05, -7.6, -7.6, -7.6, -7.15, -7.15, -7.15, -6.71, -6.71, -6.26, -6.26, -6.26, -5.81, -5.81, -5.36, -5.36, -4.92, -4.92, -4.47, -4.47, -4.02, -4.02, -3.58, -3.58, -3.58, -3.13, -3.13, -2.68, -2.68, -2.24, -1.34, -0.89, -0.45, -0.45, -0.45, -0.89, -0.89, -0.45, -0.45, -0.45, -0.45, -0.45, -0.45, -0.45, -0.45, 0.0, 0.0, -1.34, -1.34, -0.45, 0.0, 0.45, 0.45, 0.89, 0.89, 1.34, 1.79, 1.79, 0.0, -2.24, -4.02, -4.92, -4.47, -3.58, -2.24, -1.79, -2.24, -2.68, -2.68, -2.68, -2.24, -1.79, -1.79, -1.79, -2.24, -2.24, -2.24, -1.79, -1.34, -0.89, -0.45, 0.0, 0.0, 0.89, 1.34, 1.79, 1.79, -8.94, -8.94, -8.94, -8.94, -8.49, -8.49, -8.49, -8.49, -8.05, -8.05, -8.05, -7.6, -7.6, -7.6, -7.6, -7.15, -7.15, -6.71, -6.71, -6.71, -6.26, -6.26, -5.81, -5.81, -5.81, -5.36, -5.36, -4.92, -4.92, -4.47, -4.47, -4.47, -4.02, -3.58, -3.58, -3.58, -3.13, -3.13, -2.68, -2.68, -1.79, -1.34, -0.89, -0.89, -0.89, -0.89, -0.89, -0.89, -0.89, -0.89, -0.45, -0.45, -0.45, -0.89, -0.45, -0.45, 0.0, 0.0, 0.0, -0.89, -0.89, -0.45, 0.0, 0.45, 0.45, 0.89, 0.89, 1.34, 1.34, 1.34, 0.0, -2.68, -5.36, -5.36, -4.92, -3.13, -2.24, -2.24, -2.24, -1.79, -1.79, -1.79, -1.79, -2.24, -2.24, -1.79, -1.79, -1.79, -1.34, -1.34, -0.89, -0.45, 0.0, 0.0, 0.45, 1.34, 1.79, 1.79, -8.94, -8.94, -8.49, -8.49, -8.49, -8.49, -8.49, -8.05, -8.05, -8.05, -8.05, -7.6, -7.6, -7.6, -7.15, -7.15, -7.15, -6.71, -6.71, -6.26, -6.26, -6.26, -5.81, -5.81, -5.36, -5.36, -4.92, -4.92, -4.47, -4.47, -4.47, -4.47, -4.02, -4.02, -3.58, -3.58, -3.58, -3.13, -2.68, -2.24, -1.79, -1.34, -1.34, -1.34, -0.89, -0.89, -0.89, -0.89, -0.89, -0.89, -0.45, -0.45, -0.45, -0.45, 0.0, 0.0, 0.0, 0.0, 0.0, -0.45, -0.89, -0.89, -0.45, 0.0, 0.0, 0.0, 0.45, 0.45, 0.89, 0.89, 0.0, -2.24, -4.02, -4.47, -4.47, -4.02, -3.13, -2.68, -2.24, -1.79, -1.34, -1.79, -2.24, -2.24, -2.24, -1.79, -1.79, -1.34, -0.89, -0.89, -0.45, 0.0, 0.45, 0.45, 0.89, 1.34, 1.79, 1.79, -8.94, -8.49, -8.49, -8.49, -8.49, -8.49, -8.05, -8.05, -8.05, -8.05, -7.6, -7.6, -7.6, -7.6, -7.15, -7.15, -7.15, -6.71, -6.71, -6.26, -6.26, -5.81, -5.81, -5.81, -5.36, -5.36, -4.92, -4.92, -4.47, -4.47, -4.47, -4.47, -4.02, -4.02, -3.58, -3.58, -3.13, -3.13, -2.68, -2.24, -2.24, -1.79, -1.79, -1.34, -0.89, -0.89, -0.89, -0.89, -0.89, -0.89, -0.89, -0.45, -0.45, -0.45, 0.0, 0.0, -0.45, 0.0, 0.0, 0.0, -0.45, -0.45, -0.89, -0.45, 0.0, 0.0, 0.0, 0.0, 0.45, 0.45, -1.34, -3.58, -2.68, -2.24, -2.68, -3.58, -3.58, -3.58, -2.68, -2.24, -2.24, -2.24, -2.68, -2.24, -1.79, -1.34, -1.34, -0.45, -0.45, 0.0, 0.0, 0.45, 0.45, 0.89, 0.89, 1.34, 1.79, 1.79, -8.49, -8.49, -8.49, -8.49, -8.49, -8.05, -8.05, -8.05, -8.05, -8.05, -7.6, -7.6, -7.6, -7.15, -7.15, -7.15, -6.71, -6.71, -6.71, -6.26, -6.26, -5.81, -5.81, -5.36, -5.36, -5.36, -4.92, -4.92, -4.47, -4.47, -4.47, -4.47, -4.47, -4.02, -4.02, -3.58, -3.13, -3.13, -2.68, -2.24, -2.24, -2.24, -1.79, -1.34, -1.34, -1.34, -0.89, -0.89, -0.89, -0.45, -0.45, -0.89, -0.45, -0.45, -0.45, -0.45, -0.45, -0.45, 0.0, 0.0, 0.0, -0.45, -0.45, -0.45, 0.0, 0.0, -0.45, -0.45, -0.89, -1.79, -1.79, -1.34, -1.79, -2.24, -2.68, -2.68, -2.68, -3.58, -4.02, -4.02, -4.02, -3.58, -2.68, -1.34, -0.89, -0.45, 0.0, -0.45, 0.0, 0.0, 0.0, 0.0, 0.89, 1.34, 1.34, 1.79, 2.24, 2.24, -8.49, -8.49, -8.49, -8.49, -8.05, -8.05, -8.05, -8.05, -8.05, -7.6, -7.6, -7.6, -7.6, -7.15, -7.15, -7.15, -6.71, -6.71, -6.71, -6.26, -5.81, -5.81, -5.81, -5.36, -5.36, -4.92, -4.92, -4.92, -4.92, -4.47, -4.47, -4.47, -4.47, -4.02, -4.02, -3.58, -3.58, -3.13, -2.68, -2.24, -2.24, -2.24, -1.79, -1.79, -1.34, -1.34, -0.89, -0.89, -0.45, -0.45, -0.45, -0.45, -0.45, -0.45, -0.45, -0.45, -0.45, -0.45, -0.45, -0.45, 0.0, 0.0, -0.45, 0.0, 0.0, 0.0, 0.0, -0.45, -0.89, -0.89, 0.0, -0.45, -1.79, -3.13, -3.13, -2.24, -1.79, -1.79, -3.13, -4.47, -5.36, -4.47, -3.13, -1.79, -0.89, -0.45, -0.45, 0.0, 0.0, 0.0, 0.0, 0.0, 0.45, 1.34, 1.79, 2.24, 2.68, 2.68, -8.49, -8.49, -8.49, -8.49, -8.05, -8.05, -8.05, -8.05, -7.6, -7.6, -7.6, -7.6, -7.15, -7.15, -7.15, -6.71, -6.71, -6.71, -6.26, -6.26, -5.81, -5.81, -5.81, -5.36, -5.36, -4.92, -4.92, -4.92, -4.92, -4.92, -4.47, -4.47, -4.47, -4.02, -4.02, -3.58, -3.58, -3.13, -3.13, -2.68, -2.24, -2.24, -2.24, -1.79, -1.79, -1.34, -0.89, -0.89, -0.45, -0.45, -0.45, -0.45, -0.45, -0.45, -0.45, -0.45, -0.45, -0.45, -0.45, -0.45, -0.45, -0.45, 0.0, 0.0, 0.0, 0.0, 0.0, 0.0, 0.0, 0.0, 0.0, -0.45, -1.79, -3.13, -2.68, -1.79, -1.34, -1.34, -2.68, -4.47, -5.81, -5.36, -4.47, -3.13, -2.24, -1.79, -1.34, -0.89, 0.0, 0.0, 0.45, 0.89, 0.89, 0.89, 1.34, 2.24, 2.68, 2.68, -8.49, -8.49, -8.49, -8.05, -8.05, -8.05, -8.05, -7.6, -7.6, -7.6, -7.6, -7.15, -7.15, -7.15, -7.15, -6.71, -6.71, -6.71, -6.26, -5.81, -5.81, -5.81, -5.36, -5.36, -5.36, -4.92, -4.92, -4.92, -4.92, -4.92, -4.47, -4.47, -4.47, -4.02, -4.02, -3.58, -3.58, -3.13, -3.13, -2.68, -2.68, -2.24, -2.24, -1.79, -1.79, -1.34, -1.34, -0.89, -0.89, -0.45, -0.45, -0.45, -0.45, -0.45, -0.45, -0.45, -0.45, -0.45, -0.45, -0.45, -0.45, 0.0, 0.0, 0.0, 0.0, 0.0, 0.45, 0.45, 0.45, 0.0, 0.0, -0.89, -2.68, -3.13, -2.24, -1.79, -2.24, -2.68, -2.68, -3.13, -4.02, -4.92, -4.92, -4.92, -4.47, -3.58, -2.68, -1.79, -1.34, 0.0, 0.45, 0.89, 0.89, 0.89, 1.34, 2.24, 2.68, 2.68, -8.49, -8.49, -8.05, -8.05, -8.05, -8.05, -8.05, -7.6, -7.6, -7.6, -7.15, -7.15, -7.15, -7.15, -6.71, -6.71, -6.71, -6.26, -6.26, -6.26, -5.81, -5.81, -5.36, -5.36, -5.36, -4.92, -4.92, -4.92, -4.92, -4.47, -4.47, -4.47, -4.47, -4.02, -4.02, -4.02, -3.58, -3.58, -3.13, -2.68, -2.68, -2.24, -2.24, -1.79, -1.79, -1.34, -1.34, -0.89, -0.89, -0.45, -0.45, -0.45, -0.45, -0.45, -0.45, -0.45, -0.45, -0.45, -0.45, 0.0, 0.0, 0.0, 0.0, 0.0, 0.0, 0.0, 0.45, 0.89, 0.89, 1.34, 1.34, 0.45, -2.24, -4.47, -2.24, -2.68, -3.13, -3.13, -2.68, -2.24, -2.24, -2.68, -4.02, -5.36, -5.81, -5.36, -4.47, -3.58, -2.68, -0.45, 0.0, 0.45, 0.89, 0.89, 1.34, 1.79, 2.24, 2.24, -8.49, -8.49, -8.49, -8.05, -8.05, -8.05, -7.6, -7.6, -7.6, -7.6, -7.15, -7.15, -7.15, -6.71, -6.71, -6.71, -6.71, -6.26, -6.26, -6.26, -5.81, -5.81, -5.36, -5.36, -5.36, -4.92, -4.92, -4.92, -4.47, -4.47, -4.47, -4.47, -4.47, -4.02, -4.02, -4.02, -3.58, -3.58, -3.13, -3.13, -2.68, -2.24, -2.24, -1.79, -1.79, -1.34, -1.34, -0.89, -0.89, -0.89, -0.45, -0.45, -0.45, -0.45, -0.45, -0.45, -0.45, -0.45, -0.45, -0.45, 0.0, 0.0, 0.0, 0.0, 0.0, 0.45, 0.45, 0.45, 0.89, 1.34, 1.79, 3.13, -4.92, -4.47, -3.58, -3.58, -3.58, -3.13, -2.68, -1.79, -1.34, -1.34, -2.24, -4.02, -4.92, -5.36, -5.36, -4.47, -3.58, -3.13, -1.34, -0.45, 0.0, 0.45, 0.89, 1.34, 1.79, 1.79, -8.05, -8.05, -8.05, -8.05, -8.05, -8.05, -7.6, -7.6, -7.6, -7.15, -7.15, -7.15, -7.15, -6.71, -6.71, -6.71, -6.26, -6.26, -6.26, -5.81, -5.81, -5.81, -5.36, -5.36, -5.36, -4.92, -4.92, -4.92, -4.47, -4.47, -4.47, -4.47, -4.47, -4.02, -4.02, -4.02, -3.58, -3.58, -3.13, -3.13, -2.68, -2.68, -2.24, -1.79, -1.79, -1.34, -1.34, -0.89, -0.89, -0.89, -0.45, -0.45, -0.45, -0.45, -0.45, -0.45, -0.45, -0.45, -0.45, -0.45, 0.0, 0.0, 0.0, 0.0, 0.45, 0.45, 0.45, 0.45, 0.45, 0.45, 0.45, 0.89, -2.24, -5.81, -5.36, -4.02, -3.13, -3.13, -2.68, -1.79, -1.34, -0.89, -1.34, -2.24, -3.13, -4.47, -4.47, -4.47, -4.02, -3.58, -2.68, -1.79, -0.45, 0.0, 0.0, 0.45, 0.89, 0.89, -8.05, -8.05, -8.05, -8.05, -8.05, -8.05, -7.6, -7.6, -7.6, -7.15, -7.15, -7.15, -6.71, -6.71, -6.71, -6.71, -6.26, -6.26, -6.26, -5.81, -5.81, -5.81, -5.36, -5.36, -5.36, -4.92, -4.92, -4.92, -4.47, -4.47, -4.47, -4.47, -4.47, -4.02, -4.02, -3.58, -3.58, -3.58, -3.13, -3.13, -2.68, -2.68, -2.24, -2.24, -1.79, -1.79, -1.34, -1.34, -0.89, -0.89, -0.89, -0.45, -0.45, -0.45, -0.45, -0.45, -0.45, -0.45, -0.45, -0.45, 0.0, 0.0, 0.0, 0.0, 0.45, 0.45, 0.45, 0.45, 0.45, 0.0, 0.0, 0.45, 0.0, -4.47, -6.71, -5.81, -3.58, -2.68, -2.24, -2.24, -1.79, -1.34, -1.34, -1.34, -1.79, -2.68, -3.58, -3.58, -3.58, -3.58, -4.02, -3.13, -1.79, -0.89, -0.45, 0.0, 0.0, 0.0, -8.05, -8.05, -8.05, -8.05, -8.05, -8.05, -7.6, -7.6, -7.6, -7.15, -7.15, -7.15, -6.71, -6.71, -6.71, -6.71, -6.26, -6.26, -6.26, -5.81, -5.81, -5.81, -5.36, -5.36, -5.36, -4.92, -4.92, -4.92, -4.92, -4.47, -4.47, -4.47, -4.02, -4.02, -4.02, -3.58, -3.58, -3.58, -3.13, -3.13, -2.68, -2.68, -2.24, -2.24, -1.79, -1.79, -1.34, -1.34, -0.89, -0.89, -0.89, -0.45, -0.45, -0.45, -0.45, -0.45, 0.0, 0.0, -0.45, 0.0, 0.0, 0.0, 0.0, 0.0, 0.45, 0.45, 0.45, 0.0, 0.0, 0.0, 0.0, 0.0, 0.45, -1.34, -5.36, -7.6, -6.26, -3.13, -1.79, -2.24, -2.68, -2.68, -2.24, -1.34, -1.34, -1.34, -2.24, -2.68, -2.68, -3.13, -3.13, -4.02, -3.13, -1.79, -1.34, -0.89, -0.45, -0.45, -8.05, -8.05, -8.05, -8.05, -8.05, -7.6, -7.6, -7.6, -7.15, -7.15, -7.15, -7.15, -6.71, -6.71, -6.71, -6.26, -6.26, -6.26, -6.26, -5.81, -5.81, -5.81, -5.36, -5.36, -5.36, -4.92, -4.92, -4.92, -4.92, -4.47, -4.47, -4.47, -4.02, -4.02, -4.02, -3.58, -3.58, -3.13, -3.13, -3.13, -2.68, -2.68, -2.68, -2.24, -1.79, -1.79, -1.34, -1.34, -0.89, -0.89, -0.89, -0.45, -0.45, -0.45, -0.45, 0.0, 0.0, 0.0, 0.0, 0.0, 0.0, 0.0, 0.0, 0.0, 0.0, 0.0, 0.0, 0.0, 0.0, 0.0, 0.0, 0.0, 0.0, 0.0, -1.79, -5.81, -7.6, -4.47, -1.79, -1.79, -2.68, -3.13, -2.68, -2.24, -1.34, -1.34, -1.79, -1.79, -2.24, -2.24, -2.24, -2.68, -4.02, -3.13, -1.79, -0.89, -0.89, -0.89, -7.6, -7.6, -7.6, -7.6, -7.6, -7.6, -7.6, -7.6, -7.6, -7.15, -7.15, -7.15, -6.71, -6.71, -6.71, -6.26, -6.26, -6.26, -5.81, -5.81, -5.81, -5.81, -5.36, -5.36, -4.92, -4.92, -4.92, -4.92, -4.47, -4.47, -4.47, -4.02, -4.02, -4.02, -3.58, -3.58, -3.58, -3.13, -3.13, -3.13, -2.68, -2.68, -2.68, -2.24, -2.24, -1.79, -1.79, -1.34, -0.89, -0.89, -0.89, -0.45, -0.45, -0.45, 0.0, 0.0, 0.0, 0.0, 0.0, 0.0, 0.0, 0.0, 0.0, 0.0, 0.0, 0.0, 0.0, 0.0, 0.0, 0.0, 0.0, -0.45, -0.45, 0.0, -0.45, -2.68, -5.81, -5.81, -2.68, -1.34, -1.79, -2.68, -2.68, -2.68, -2.24, -1.79, -1.79, -1.79, -1.79, -1.79, -1.79, -1.79, -3.58, -3.58, -2.68, -1.34, -0.89, -0.89, -7.6, -7.6, -7.6, -7.6, -7.6, -7.6, -7.6, -7.6, -7.15, -7.15, -7.15, -6.71, -6.71, -6.71, -6.71, -6.26, -6.26, -6.26, -5.81, -5.81, -5.81, -5.36, -5.36, -5.36, -4.92, -4.92, -4.92, -4.92, -4.47, -4.47, -4.47, -4.02, -4.02, -4.02, -3.58, -3.58, -3.58, -3.58, -3.13, -3.13, -3.13, -2.68, -2.68, -2.24, -2.24, -1.79, -1.79, -1.34, -1.34, -0.89, -0.89, -0.45, -0.45, -0.45, 0.0, 0.0, 0.0, 0.0, 0.0, 0.0, 0.0, 0.0, 0.0, 0.0, 0.0, 0.0, 0.0, 0.0, 0.0, 0.0, 0.0, -0.45, -0.89, -1.34, -1.34, -2.24, -3.13, -4.47, -4.47, -2.68, -1.34, -1.34, -1.79, -2.24, -2.24, -1.79, -1.79, -1.79, -1.79, -1.79, -1.34, -1.34, -1.34, -3.13, -3.13, -2.24, -0.89, -0.89, -7.6, -7.6, -7.6, -7.6, -7.6, -7.6, -7.6, -7.15, -7.15, -7.15, -7.15, -6.71, -6.71, -6.71, -6.26, -6.26, -6.26, -5.81, -5.81, -5.81, -5.81, -5.36, -5.36, -5.36, -4.92, -4.92, -4.92, -4.47, -4.47, -4.47, -4.02, -4.02, -4.02, -4.02, -3.58, -3.58, -3.58, -3.58, -3.13, -3.13, -3.13, -2.68, -2.68, -2.24, -2.24, -1.79, -1.79, -1.34, -1.34, -1.34, -0.89, -0.89, -0.45, -0.45, 0.0, 0.0, 0.0, 0.0, 0.0, 0.0, 0.0, 0.0, 0.0, 0.0, 0.0, 0.0, 0.0, 0.0, -0.45, -0.45, 0.0, 0.0, -0.45, -2.24, -2.68, -1.79, -1.79, -2.68, -3.58, -4.47, -2.68, -0.89, -0.89, -1.34, -2.24, -2.24, -1.79, -1.79, -1.79, -1.34, -1.34, -0.89, -1.34, -2.24, -2.68, -2.68, -1.79, -1.79, -7.15, -7.15, -7.15, -7.15, -7.15, -7.15, -7.15, -7.15, -7.15, -7.15, -7.15, -6.71, -6.71, -6.71, -6.26, -6.26, -6.26, -5.81, -5.81, -5.81, -5.81, -5.36, -5.36, -4.92, -4.92, -4.92, -4.92, -4.47, -4.47, -4.47, -4.02, -4.02, -4.02, -4.02, -3.58, -3.58, -3.58, -3.58, -3.13, -3.13, -3.13, -2.68, -2.68, -2.24, -2.24, -1.79, -1.79, -1.34, -1.34, -1.34, -0.89, -0.89, -0.45, -0.45, 0.0, 0.0, 0.0, 0.0, 0.0, 0.0, 0.0, 0.0, 0.0, 0.0, 0.0, 0.0, 0.0, 0.0, 0.0, -0.45, -0.45, 0.0, 0.0, -1.79, -3.58, -2.68, -1.34, -1.79, -2.68, -4.02, -3.58, -1.79, -0.89, -0.89, -1.79, -2.24, -1.79, -1.34, -0.89, -0.89, -0.89, -0.89, -1.34, -1.34, -1.79, -2.24, -2.24, -2.24, -7.15, -7.15, -7.15, -7.15, -7.15, -7.15, -7.15, -7.15, -7.15, -7.15, -6.71, -6.71, -6.71, -6.26, -6.26, -6.26, -6.26, -5.81, -5.81, -5.36, -5.36, -5.36, -5.36, -4.92, -4.92, -4.92, -4.47, -4.47, -4.47, -4.47, -4.02, -4.02, -4.02, -4.02, -3.58, -3.58, -3.58, -3.58, -3.13, -3.13, -3.13, -2.68, -2.68, -2.24, -2.24, -1.79, -1.79, -1.34, -1.34, -0.89, -0.89, -0.89, -0.45, -0.45, 0.0, 0.0, 0.0, 0.0, 0.0, 0.0, 0.0, 0.0, 0.0, 0.0, 0.0, 0.0, 0.0, 0.0, 0.0, 0.0, -0.45, 0.0, 0.0, -0.45, -3.13, -3.58, -2.24, -1.79, -2.68, -3.13, -3.13, -2.68, -1.79, -0.89, -1.34, -1.79, -1.79, -1.34, -0.89, -0.45, -0.45, -0.89, -0.89, -1.34, -1.79, -1.79, -1.79, -1.79, -7.15, -7.15, -7.15, -7.15, -7.15, -7.15, -7.15, -6.71, -6.71, -6.71, -6.71, -6.71, -6.71, -6.71, -6.26, -6.26, -5.81, -5.81, -5.81, -5.36, -5.36, -5.36, -4.92, -4.92, -4.92, -4.92, -4.47, -4.47, -4.47, -4.47, -4.02, -4.02, -4.02, -4.02, -3.58, -3.58, -3.58, -3.58, -3.13, -3.13, -3.13, -2.68, -2.68, -2.24, -2.24, -1.79, -1.79, -1.34, -1.34, -0.89, -0.89, -0.89, -0.45, -0.45, -0.45, 0.0, 0.0, 0.0, 0.0, 0.0, 0.0, 0.0, 0.0, 0.0, 0.0, 0.0, 0.0, 0.0, 0.0, 0.0, 0.0, -0.45, -0.89, -0.89, -1.79, -3.13, -3.13, -3.13, -2.68, -3.13, -2.68, -2.68, -2.24, -1.34, -1.34, -1.34, -1.34, -1.34, -0.89, -0.89, -0.45, -0.45, -0.45, -0.45, -0.89, -1.34, -1.34, -1.34, -6.71, -6.71, -6.71, -6.71, -6.71, -6.71, -6.71, -6.71, -6.71, -6.71, -6.71, -6.71, -6.26, -6.26, -6.26, -5.81, -5.81, -5.81, -5.36, -5.36, -5.36, -5.36, -4.92, -4.92, -4.92, -4.92, -4.47, -4.47, -4.47, -4.47, -4.02, -4.02, -4.02, -4.02, -3.58, -3.58, -3.58, -3.58, -3.13, -3.13, -3.13, -2.68, -2.68, -2.24, -2.24, -2.24, -1.79, -1.79, -1.34, -0.89, -0.89, -0.89, -0.45, -0.45, -0.45, 0.0, 0.0, 0.0, 0.0, 0.0, 0.0, 0.0, 0.0, 0.0, 0.0, 0.0, 0.0, 0.45, 0.45, 0.45, 0.0, 0.0, -1.34, -1.34, -0.89, -1.79, -3.13, -4.02, -3.58, -2.68, -2.24, -2.24, -2.24, -2.24, -1.34, -0.89, -0.89, -1.34, -1.34, -0.89, -0.45, -0.45, 0.0, 0.0, 0.0, -0.89, -0.89, -0.89, -6.71, -6.71, -6.71, -6.71, -6.71, -6.71, -6.71, -6.71, -6.71, -6.71, -6.26, -6.26, -6.26, -6.26, -5.81, -5.81, -5.81, -5.36, -5.36, -5.36, -5.36, -5.36, -4.92, -4.92, -4.92, -4.92, -4.47, -4.47, -4.47, -4.47, -4.02, -4.02, -4.02, -4.02, -3.58, -3.58, -3.58, -3.58, -3.13, -3.13, -3.13, -2.68, -2.68, -2.24, -2.24, -2.24, -1.79, -1.79, -1.34, -1.34, -0.89, -0.89, -0.89, -0.45, -0.45, -0.45, 0.0, 0.0, 0.0, 0.0, 0.0, 0.45, 0.45, 0.0, 0.0, 0.0, 0.0, 0.45, 0.45, 0.45, 0.89, 0.45, -0.45, -1.34, -1.34, -1.34, -2.68, -4.02, -4.02, -3.13, -1.79, -1.79, -2.24, -2.68, -2.24, -1.34, -0.89, -0.89, -1.34, -0.89, -0.89, -0.45, 0.0, 0.0, 0.0, 0.0, 0.0, 0.0, -6.26, -6.26, -6.26, -6.26, -6.26, -6.26, -6.26, -6.26, -6.26, -6.26, -6.26, -6.26, -6.26, -5.81, -5.81, -5.81, -5.36, -5.36, -5.36, -5.36, -5.36, -4.92, -4.92, -4.92, -4.92, -4.92, -4.47, -4.47, -4.47, -4.47, -4.02, -4.02, -4.02, -4.02, -3.58, -3.58, -3.58, -3.13, -3.13, -3.13, -3.13, -2.68, -2.68, -2.24, -2.24, -2.24, -1.79, -1.79, -1.34, -1.34, -0.89, -0.89, -0.89, -0.45, -0.45, -0.45, 0.0, 0.0, 0.0, 0.0, 0.0, 0.45, 0.45, 0.45, 0.0, 0.0, 0.0, 0.0, 0.45, 0.45, 0.89, 0.89, 0.0, -0.89, -1.79, -1.34, -1.79, -3.13, -4.02, -3.13, -1.79, -1.79, -2.24, -2.68, -2.68, -1.79, -1.34, -0.89, -0.45, -0.89, -0.45, -0.45, 0.0, 0.0, 0.45, 0.45, 0.0, 0.0, -6.26, -6.26, -6.26, -6.26, -6.26, -6.26, -6.26, -6.26, -6.26, -6.26, -6.26, -6.26, -5.81, -5.81, -5.81, -5.81, -5.36, -5.36, -5.36, -5.36, -5.36, -4.92, -4.92, -4.92, -4.92, -4.47, -4.47, -4.47, -4.47, -4.47, -4.02, -4.02, -4.02, -4.02, -3.58, -3.58, -3.58, -3.13, -3.13, -3.13, -2.68, -2.68, -2.68, -2.24, -2.24, -2.24, -1.79, -1.79, -1.34, -1.34, -1.34, -0.89, -0.89, -0.89, -0.45, -0.45, 0.0, 0.0, 0.0, 0.0, 0.0, 0.45, 0.45, 0.45, 0.45, 0.45, 0.45, 0.45, 0.45, 0.45, 0.89, 0.89, 0.89, 0.0, -1.34, -1.34, -1.34, -2.24, -3.13, -3.13, -2.68, -2.24, -2.24, -2.68, -2.68, -2.24, -1.34, -0.45, 0.0, 0.0, 0.0, 0.0, 0.0, 0.0, 0.45, 0.89, 0.89, 0.45, -6.26, -6.26, -6.26, -6.26, -6.26, -6.26, -5.81, -5.81, -5.81, -5.81, -5.81, -5.81, -5.81, -5.81, -5.36, -5.36, -5.36, -5.36, -5.36, -5.36, -4.92, -4.92, -4.92, -4.92, -4.92, -4.47, -4.47, -4.47, -4.47, -4.02, -4.02, -4.02, -4.02, -4.02, -3.58, -3.58, -3.58, -3.13, -3.13, -3.13, -2.68, -2.68, -2.68, -2.24, -2.24, -2.24, -1.79, -1.79, -1.34, -1.34, -1.34, -0.89, -0.89, -0.45, -0.45, -0.45, 0.0, 0.0, 0.0, 0.0, 0.0, 0.45, 0.45, 0.45, 0.45, 0.45, 0.45, 0.45, 0.45, 0.45, 0.89, 0.89, 1.79, 0.89, -0.45, -1.79, -2.24, -2.68, -2.68, -2.68, -2.68, -2.68, -2.68, -2.24, -2.24, -1.79, -1.34, -0.89, 0.0, 0.0, 0.0, 0.0, 0.45, 0.45, 0.89, 1.34, 1.79, 0.89, -5.81, -5.81, -5.81, -5.81, -5.81, -5.81, -5.81, -5.81, -5.81, -5.81, -5.81, -5.36, -5.36, -5.36, -5.36, -5.36, -5.36, -5.36, -5.36, -4.92, -4.92, -4.92, -4.92, -4.92, -4.47, -4.47, -4.47, -4.47, -4.47, -4.02, -4.02, -4.02, -4.02, -3.58, -3.58, -3.58, -3.58, -3.13, -3.13, -2.68, -2.68, -2.68, -2.68, -2.24, -2.24, -1.79, -1.79, -1.79, -1.79, -1.34, -1.34, -0.89, -0.89, -0.45, -0.45, -0.45, 0.0, 0.0, 0.0, 0.0, 0.0, 0.45, 0.45, 0.45, 0.45, 0.45, 0.45, 0.45, 0.45, 0.45, 0.45, 0.89, 1.34, 1.79, 1.34, -0.45, -2.24, -2.68, -2.68, -2.24, -2.68, -3.13, -2.68, -2.24, -1.79, -1.79, -1.34, -0.89, -0.45, 0.0, 0.45, 0.45, 0.45, 0.89, 1.34, 1.79, 2.24, 1.79, -5.81, -5.81, -5.81, -5.81, -5.81, -5.81, -5.81, -5.81, -5.81, -5.36, -5.36, -5.36, -5.36, -5.36, -5.36, -5.36, -5.36, -5.36, -4.92, -4.92, -4.92, -4.92, -4.92, -4.47, -4.47, -4.47, -4.47, -4.47, -4.02, -4.02, -4.02, -4.02, -3.58, -3.58, -3.58, -3.58, -3.13, -3.13, -3.13, -2.68, -2.68, -2.68, -2.24, -2.24, -2.24, -1.79, -1.79, -1.79, -1.79, -1.34, -1.34, -0.89, -0.89, -0.45, -0.45, -0.45, 0.0, 0.0, 0.0, 0.0, 0.45, 0.45, 0.45, 0.45, 0.45, 0.45, 0.45, 0.45, 0.45, 0.45, 0.89, 0.89, 1.34, 1.79, 2.68, 2.24, -0.45, -2.68, -3.13, -2.68, -2.68, -2.68, -2.68, -2.24, -1.79, -1.34, -0.89, -0.89, -0.45, 0.0, 0.0, 0.45, 0.89, 1.34, 1.79, 2.24, 2.24, 2.24, -5.81, -5.81, -5.81, -5.81, -5.81, -5.81, -5.81, -5.36, -5.36, -5.36, -5.36, -5.36, -5.36, -5.36, -5.36, -5.36, -5.36, -4.92, -4.92, -4.92, -4.92, -4.92, -4.47, -4.47, -4.47, -4.47, -4.47, -4.02, -4.02, -4.02, -4.02, -3.58, -3.58, -3.58, -3.58, -3.13, -3.13, -3.13, -3.13, -2.68, -2.68, -2.68, -2.24, -2.24, -2.24, -1.79, -1.79, -1.79, -1.34, -1.34, -1.34, -0.89, -0.89, -0.45, -0.45, -0.45, 0.0, 0.0, 0.0, 0.0, 0.45, 0.45, 0.45, 0.45, 0.45, 0.89, 0.89, 0.45, 0.45, 0.45, 0.45, 0.89, 0.89, 1.34, 2.24, 3.13, 1.79, -0.89, -3.13, -3.58, -3.13, -2.68, -2.68, -2.24, -1.79, -0.89, -0.45, -0.45, -0.45, 0.0, 0.0, 0.89, 1.34, 1.79, 1.79, 1.79, 1.79, 1.79, -5.36, -5.36, -5.36, -5.36, -5.36, -5.36, -5.36, -5.36, -5.36, -5.36, -5.36, -5.36, -5.36, -5.36, -4.92, -4.92, -4.92, -4.92, -4.92, -4.92, -4.92, -4.47, -4.47, -4.47, -4.47, -4.47, -4.02, -4.02, -4.02, -4.02, -3.58, -3.58, -3.58, -3.58, -3.13, -3.13, -3.13, -3.13, -2.68, -2.68, -2.68, -2.68, -2.24, -2.24, -2.24, -2.24, -1.79, -1.79, -1.34, -1.34, -1.34, -0.89, -0.89, -0.45, -0.45, -0.45, 0.0, 0.0, 0.0, 0.0, 0.45, 0.45, 0.45, 0.89, 0.89, 0.89, 0.89, 0.89, 0.89, 0.45, 0.45, 0.89, 0.89, 1.34, 1.79, 2.68, 3.13, 1.79, -0.89, -3.13, -4.02, -3.58, -2.24, -1.79, -1.34, -0.89, -0.45, 0.0, 0.0, 0.0, 0.45, 0.89, 1.34, 1.79, 1.79, 1.79, 1.79, 1.79, -5.36, -5.36, -5.36, -5.36, -5.36, -5.36, -5.36, -5.36, -5.36, -5.36, -5.36, -4.92, -4.92, -4.92, -4.92, -4.92, -4.92, -4.92, -4.92, -4.92, -4.47, -4.47, -4.47, -4.47, -4.47, -4.47, -4.02, -4.02, -4.02, -4.02, -3.58, -3.58, -3.58, -3.58, -3.13, -3.13, -3.13, -3.13, -2.68, -2.68, -2.68, -2.68, -2.24, -2.24, -2.24, -2.24, -1.79, -1.79, -1.79, -1.34, -1.34, -0.89, -0.89, -0.45, -0.45, 0.0, 0.0, 0.0, 0.0, 0.0, 0.45, 0.45, 0.89, 0.89, 0.89, 0.89, 0.89, 0.89, 0.89, 0.89, 0.89, 0.89, 0.89, 1.34, 1.79, 2.24, 3.13, 3.13, 1.79, -0.89, -4.02, -4.92, -3.13, -1.34, -0.89, -0.45, -0.45, 0.0, 0.0, 0.45, 0.89, 1.34, 1.34, 1.34, 1.34, 1.34, 1.34, 1.34, -5.36, -5.36, -5.36, -5.36, -5.36, -5.36, -5.36, -5.36, -5.36, -4.92, -4.92, -4.92, -4.92, -4.92, -4.92, -4.92, -4.92, -4.92, -4.92, -4.92, -4.47, -4.47, -4.47, -4.47, -4.47, -4.02, -4.02, -4.02, -4.02, -3.58, -3.58, -3.58, -3.58, -3.13, -3.13, -3.13, -3.13, -3.13, -2.68, -2.68, -2.68, -2.68, -2.24, -2.24, -2.24, -2.24, -1.79, -1.79, -1.79, -1.34, -1.34, -0.89, -0.89, -0.45, -0.45, 0.0, 0.0, 0.0, 0.0, 0.0, 0.45, 0.45, 0.89, 0.89, 0.89, 0.89, 0.89, 0.89, 0.89, 0.89, 0.89, 0.89, 0.89, 1.34, 1.79, 2.24, 2.68, 3.13, 3.13, 1.79, -0.89, -4.47, -4.47, -2.68, -0.89, 0.0, 0.0, 0.0, 0.0, 0.45, 0.89, 0.89, 0.89, 1.34, 1.34, 1.79, 1.79, 1.79, -4.92, -4.92, -4.92, -5.36, -4.92, -4.92, -4.92, -4.92, -4.92, -4.92, -4.92, -4.92, -4.92, -4.92, -4.92, -4.92, -4.92, -4.92, -4.47, -4.47, -4.47, -4.47, -4.47, -4.47, -4.02, -4.02, -4.02, -4.02, -4.02, -3.58, -3.58, -3.58, -3.58, -3.13, -3.13, -3.13, -3.13, -3.13, -2.68, -2.68, -2.68, -2.68, -2.68, -2.24, -2.24, -2.24, -1.79, -1.79, -1.79, -1.34, -0.89, -0.89, -0.89, -0.45, 0.0, 0.0, 0.0, 0.0, 0.0, 0.0, 0.45, 0.45, 0.45, 0.89, 0.89, 0.89, 0.89, 0.89, 0.89, 0.89, 0.89, 0.89, 1.34, 1.34, 1.79, 2.24, 2.68, 3.13, 3.13, 3.13, 1.79, -1.34, -4.92, -4.47, -1.79, 0.0, 0.45, 0.0, 0.0, 0.89, 0.89, 0.89, 0.89, 1.34, 1.79, 1.79, 1.79, 1.79, -4.92, -4.92, -4.92, -4.92, -4.92, -4.92, -4.92, -4.92, -4.92, -4.92, -4.92, -4.92, -4.92, -4.92, -4.92, -4.47, -4.47, -4.47, -4.47, -4.47, -4.47, -4.47, -4.47, -4.02, -4.02, -4.02, -4.02, -4.02, -3.58, -3.58, -3.58, -3.58, -3.58, -3.13, -3.13, -3.13, -3.13, -3.13, -2.68, -2.68, -2.68, -2.68, -2.68, -2.24, -2.24, -2.24, -1.79, -1.79, -1.34, -1.34, -0.89, -0.89, -0.45, -0.45, 0.0, 0.0, 0.0, 0.0, 0.0, 0.45, 0.45, 0.45, 0.45, 0.45, 0.89, 0.89, 0.89, 0.89, 0.89, 0.89, 0.89, 1.34, 1.34, 1.34, 1.79, 2.24, 2.68, 3.13, 3.13, 3.13, 2.68, 0.89, -2.68, -4.92, -3.13, 0.0, 0.45, 0.45, 0.45, 0.45, 0.89, 0.89, 1.34, 1.34, 1.79, 1.79, 1.79, 1.79, -4.92, -4.92, -4.47, -4.92, -4.92, -4.92, -4.92, -4.92, -4.92, -4.92, -4.92, -4.92, -4.92, -4.47, -4.47, -4.47, -4.47, -4.47, -4.47, -4.47, -4.47, -4.47, -4.02, -4.02, -4.02, -4.02, -4.02, -4.02, -3.58, -3.58, -3.58, -3.58, -3.13, -3.13, -3.13, -3.13, -3.13, -3.13, -2.68, -2.68, -2.68, -2.68, -2.24, -2.24, -2.24, -1.79, -1.79, -1.34, -1.34, -1.34, -0.89, -0.89, -0.45, -0.45, 0.0, 0.0, 0.0, 0.0, 0.0, 0.45, 0.45, 0.45, 0.45, 0.45, 0.89, 0.89, 0.89, 0.89, 0.89, 0.89, 0.89, 0.89, 1.34, 1.79, 1.79, 2.24, 2.24, 2.68, 3.13, 3.13, 2.68, 2.24, 0.45, -3.13, -4.02, -0.89, 0.45, 0.45, 0.45, 0.45, 0.89, 0.89, 1.34, 1.34, 1.79, 1.79, 1.79, 1.79, -4.47, -4.47, -4.47, -4.47, -4.47, -4.47, -4.92, -4.92, -4.92, -4.92, -4.92, -4.47, -4.47, -4.47, -4.47, -4.47, -4.47, -4.47, -4.47, -4.47, -4.02, -4.02, -4.02, -4.02, -4.02, -4.02, -4.02, -3.58, -3.58, -3.58, -3.58, -3.58, -3.13, -3.13, -3.13, -3.13, -3.13, -2.68, -2.68, -2.68, -2.68, -2.68, -2.24, -2.24, -1.79, -1.79, -1.79, -1.34, -1.34, -0.89, -0.89, -0.89, -0.45, 0.0, 0.0, 0.0, 0.0, 0.0, 0.0, 0.0, 0.45, 0.45, 0.45, 0.45, 0.89, 0.89, 0.89, 0.89, 0.89, 0.89, 0.89, 0.89, 0.89, 1.34, 1.79, 2.24, 2.24, 2.68, 2.68, 3.13, 2.68, 2.68, 1.79, -0.89, -3.58, -0.45, 0.0, 0.45, 0.45, 0.45, 0.89, 0.89, 0.89, 1.34, 1.79, 1.79, 1.79, 1.79, -4.47, -4.47, -4.47, -4.47, -4.47, -4.47, -4.47, -4.47, -4.47, -4.47, -4.47, -4.47, -4.47, -4.47, -4.47, -4.47, -4.47, -4.02, -4.02, -4.02, -4.02, -4.02, -4.02, -4.02, -4.02, -3.58, -3.58, -3.58, -3.58, -3.58, -3.58, -3.13, -3.13, -3.13, -3.13, -3.13, -3.13, -2.68, -2.68, -2.68, -2.68, -2.24, -2.24, -2.24, -1.79, -1.79, -1.34, -1.34, -1.34, -0.89, -0.89, -0.45, -0.45, 0.0, 0.0, 0.0, 0.0, 0.0, 0.0, 0.0, 0.45, 0.45, 0.45, 0.45, 0.89, 0.89, 0.89, 0.89, 0.89, 0.89, 0.89, 0.89, 0.89, 1.34, 1.79, 1.79, 2.24, 2.24, 2.68, 2.68, 2.68, 2.24, 1.79, 0.0, -3.13, -1.34, 0.0, 0.0, 0.45, 0.45, 0.89, 1.34, 0.89, 1.34, 1.34, 1.79, 1.79, 1.79, -4.02, -4.02, -4.02, -4.02, -4.47, -4.47, -4.47, -4.47, -4.47, -4.47, -4.47, -4.47, -4.47, -4.02, -4.02, -4.02, -4.02, -4.02, -4.02, -4.02, -4.02, -4.02, -4.02, -3.58, -3.58, -3.58, -3.58, -3.58, -3.58, -3.58, -3.58, -3.13, -3.13, -3.13, -3.13, -3.13, -2.68, -2.68, -2.68, -2.68, -2.24, -2.24, -2.24, -1.79, -1.79, -1.34, -1.34, -1.34, -0.89, -0.89, -0.89, -0.45, -0.45, 0.0, 0.0, 0.0, 0.0, 0.0, 0.0, 0.0, 0.45, 0.45, 0.45, 0.45, 0.89, 0.89, 0.89, 0.89, 0.89, 0.89, 0.89, 0.89, 0.89, 0.89, 1.34, 1.79, 1.79, 2.24, 2.24, 2.24, 2.24, 2.24, 1.34, -2.24, -3.58, -2.24, -0.45, 0.0, 0.45, 0.45, 0.89, 1.34, 1.34, 1.34, 1.34, 1.79, 1.79, 1.79, -4.02, -4.02, -4.02, -4.02, -4.02, -4.02, -4.02, -4.02, -4.02, -4.02, -4.02, -4.02, -4.02, -4.02, -4.02, -4.02, -4.02, -4.02, -4.02, -3.58, -3.58, -3.58, -3.58, -3.58, -3.58, -3.58, -3.58, -3.58, -3.58, -3.13, -3.13, -3.13, -3.13, -3.13, -3.13, -2.68, -2.68, -2.68, -2.68, -2.24, -2.24, -2.24, -1.79, -1.79, -1.79, -1.34, -1.34, -1.34, -0.89, -0.89, -0.89, -0.45, -0.45, 0.0, 0.0, 0.0, 0.0, 0.0, 0.0, 0.0, 0.0, 0.45, 0.45, 0.45, 0.45, 0.89, 0.89, 0.89, 0.89, 0.89, 0.89, 0.89, 0.89, 0.89, 0.89, 1.34, 1.34, 1.79, 1.79, 1.79, 1.79, 1.79, 0.89, -1.79, -3.58, -2.68, -0.89, 0.0, 0.0, 0.0, 0.45, 0.89, 1.34, 1.34, 1.34, 1.79, 1.79, 1.79, -4.02, -4.02, -4.02, -4.02, -4.02, -4.02, -4.02, -4.02, -4.02, -4.02, -4.02, -4.02, -4.02, -4.02, -4.02, -4.02, -3.58, -3.58, -3.58, -3.58, -3.58, -3.58, -3.58, -3.58, -3.58, -3.58, -3.58, -3.13, -3.13, -3.13, -3.13, -3.13, -3.13, -3.13, -2.68, -2.68, -2.68, -2.68, -2.24, -2.24, -2.24, -1.79, -1.79, -1.79, -1.34, -1.34, -1.34, -0.89, -0.89, -0.89, -0.89, -0.45, -0.45, 0.0, 0.0, 0.0, 0.0, 0.0, 0.0, 0.0, 0.0, 0.0, 0.45, 0.45, 0.45, 0.45, 0.45, 0.45, 0.45, 0.45, 0.89, 0.89, 0.89, 0.89, 0.89, 0.89, 1.34, 1.34, 1.34, 1.79, 1.79, 1.79, 1.34, -0.45, -3.13, -3.13, -1.34, 0.0, 0.0, 0.0, 0.0, 0.45, 0.89, 1.34, 1.34, 1.79, 1.79, 1.79, -3.58, -3.58, -3.58, -3.58, -3.58, -3.58, -3.58, -3.58, -3.58, -4.02, -4.02, -3.58, -3.58, -3.58, -3.58, -3.58, -3.58, -3.58, -3.58, -3.58, -3.58, -3.58, -3.58, -3.58, -3.13, -3.13, -3.13, -3.13, -3.13, -3.13, -3.13, -3.13, -2.68, -2.68, -2.68, -2.68, -2.68, -2.24, -2.24, -2.24, -1.79, -1.79, -1.79, -1.79, -1.34, -1.34, -1.34, -0.89, -0.89, -0.89, -0.45, -0.45, -0.45, 0.0, 0.0, 0.0, 0.0, 0.0, 0.0, 0.0, 0.0, 0.0, 0.0, 0.0, 0.45, 0.45, 0.45, 0.45, 0.45, 0.45, 0.45, 0.45, 0.89, 0.89, 0.45, 0.45, 0.45, 0.89, 1.34, 1.79, 1.79, 1.79, 2.24, 0.89, -2.24, -3.13, -1.79, -0.45, 0.0, -0.45, -0.45, 0.0, 0.45, 0.89, 1.79, 2.24, 2.24, 2.24, -3.58, -3.58, -3.58, -3.58, -3.58, -3.58, -3.58, -3.58, -3.58, -3.58, -3.58, -3.58, -3.58, -3.58, -3.58, -3.58, -3.58, -3.58, -3.58, -3.58, -3.58, -3.58, -3.13, -3.13, -3.13, -3.13, -3.13, -3.13, -3.13, -3.13, -2.68, -2.68, -2.68, -2.68, -2.68, -2.24, -2.24, -2.24, -2.24, -1.79, -1.79, -1.79, -1.79, -1.34, -1.34, -1.34, -1.34, -0.89, -0.89, -0.89, -0.45, -0.45, -0.45, -0.45, 0.0, 0.0, 0.0, 0.0, 0.0, 0.0, 0.0, 0.0, 0.0, 0.0, 0.0, 0.0, 0.45, 0.45, 0.45, 0.45, 0.45, 0.45, 0.45, 0.45, 0.45, 0.45, 0.45, 0.89, 0.89, 1.34, 1.79, 1.79, 1.79, 1.79, -0.45, -2.68, -1.79, -0.45, 0.0, 0.0, -0.45, 0.0, 0.0, 0.89, 1.34, 2.24, 2.24, 2.24, -3.13, -3.13, -3.13, -3.58, -3.58, -3.58, -3.58, -3.58, -3.58, -3.58, -3.58, -3.58, -3.58, -3.58, -3.58, -3.58, -3.58, -3.58, -3.13, -3.13, -3.13, -3.13, -3.13, -3.13, -3.13, -3.13, -3.13, -3.13, -2.68, -2.68, -2.68, -2.68, -2.68, -2.68, -2.24, -2.24, -2.24, -2.24, -1.79, -1.79, -1.79, -1.79, -1.34, -1.34, -1.34, -1.34, -0.89, -0.89, -0.89, -0.89, -0.45, -0.45, -0.45, -0.45, -0.45, 0.0, 0.0, 0.0, 0.0, 0.0, 0.0, 0.0, 0.0, 0.0, 0.0, 0.0, 0.0, 0.0, 0.45, 0.45, 0.45, 0.45, 0.45, 0.45, 0.45, 0.45, 0.45, 0.45, 0.45, 1.34, 1.34, 1.34, 1.79, 1.79, 0.45, -1.79, -2.24, -0.89, 0.0, 0.0, 0.0, 0.0, 0.0, 0.45, 1.34, 2.24, 2.24, 2.24, -3.13, -3.13, -3.13, -3.13, -3.13, -3.13, -3.13, -3.13, -3.58, -3.58, -3.58, -3.58, -3.58, -3.58, -3.58, -3.58, -3.13, -3.13, -3.13, -3.13, -3.13, -3.13, -3.13, -3.13, -3.13, -3.13, -2.68, -2.68, -2.68, -2.68, -2.68, -2.68, -2.68, -2.24, -2.24, -2.24, -2.24, -2.24, -1.79, -1.79, -1.79, -1.34, -1.34, -1.34, -1.34, -1.34, -0.89, -0.89, -0.89, -0.89, -0.89, -0.45, -0.45, -0.45, -0.45, -0.45, -0.45, 0.0, 0.0, 0.0, 0.0, 0.0, 0.0, 0.0, 0.0, 0.0, 0.0, 0.0, 0.0, 0.0, 0.0, 0.0, 0.0, 0.45, 0.45, 0.45, 0.45, 0.45, 0.45, 0.89, 0.89, 1.34, 1.34, 1.79, 1.34, -0.89, -2.68, -1.34, 0.0, 0.45, 0.0, 0.0, 0.0, 0.89, 1.34, 2.68, 2.68, 2.68, -3.13, -3.13, -3.13, -3.13, -3.13, -3.13, -3.13, -3.13, -3.13, -3.13, -3.13, -3.13, -3.13, -3.13, -3.13, -3.13, -3.13, -3.13, -3.13, -3.13, -3.13, -3.13, -3.13, -2.68, -2.68, -2.68, -2.68, -2.68, -2.68, -2.68, -2.68, -2.24, -2.24, -2.24, -2.24, -2.24, -2.24, -1.79, -1.79, -1.79, -1.79, -1.34, -1.34, -1.34, -1.34, -1.34, -0.89, -0.89, -0.89, -0.89, -0.89, -0.45, -0.45, -0.45, -0.45, -0.45, -0.45, -0.45, -0.45, 0.0, 0.0, 0.0, 0.0, 0.0, 0.0, 0.0, 0.0, 0.0, 0.0, 0.0, 0.0, 0.0, 0.0, 0.0, 0.0, 0.45, 0.45, 0.0, 0.45, 0.45, 0.89, 0.89, 1.34, 1.79, 1.79, 0.0, -2.68, -2.68, -0.45, 0.45, 0.45, 0.0, 0.0, 0.89, 1.79, 2.68, 2.68, 2.68, -2.68, -2.68, -2.68, -2.68, -2.68, -2.68, -3.13, -3.13, -3.13, -3.13, -3.13, -3.13, -3.13, -3.13, -3.13, -3.13, -3.13, -3.13, -3.13, -3.13, -2.68, -2.68, -2.68, -2.68, -2.68, -2.68, -2.68, -2.68, -2.68, -2.24, -2.24, -2.24, -2.24, -2.24, -2.24, -1.79, -1.79, -1.79, -1.79, -1.79, -1.79, -1.34, -1.34, -1.34, -1.34, -1.34, -1.34, -0.89, -0.89, -0.89, -0.89, -0.89, -0.45, -0.45, -0.45, -0.45, -0.45, -0.45, -0.45, -0.45, -0.45, -0.45, 0.0, 0.0, 0.0, 0.0, 0.0, 0.0, 0.0, 0.0, 0.0, 0.0, 0.0, 0.0, 0.0, 0.0, 0.0, 0.0, 0.0, 0.45, 0.45, 0.89, 1.34, 1.79, 2.24, 0.89, -1.34, -3.13, -1.79, 0.0, 0.0, 0.0, 0.0, 0.89, 2.24, 3.13, 3.13, 3.13, -2.68, -2.68, -2.68, -2.68, -2.68, -2.68, -3.13, -3.13, -3.13, -3.13, -3.13, -3.13, -3.13, -3.13, -3.13, -3.13, -3.13, -3.13, -3.13, -3.13, -2.68, -2.68, -2.68, -2.68, -2.68, -2.68, -2.68, -2.68, -2.68, -2.24, -2.24, -2.24, -2.24, -2.24, -2.24, -1.79, -1.79, -1.79, -1.79, -1.79, -1.79, -1.34, -1.34, -1.34, -1.34, -1.34, -1.34, -0.89, -0.89, -0.89, -0.89, -0.89, -0.45, -0.45, -0.45, -0.45, -0.45, -0.45, -0.45, -0.45, -0.45, -0.45, 0.0, 0.0, 0.0, 0.0, 0.0, 0.0, 0.0, 0.0, 0.0, 0.0, 0.0, 0.0, 0.0, 0.0, 0.0, 0.0, 0.0, 0.45, 0.45, 0.89, 1.34, 1.79, 2.24, 1.79, -0.45, -2.68, -2.68, -1.34, 0.0, 0.0, 0.45, 1.34, 2.68, 3.58, 3.58, 3.58]}]